GFSFLT2_500_spd_000.txt.gz
Wind_Speed
6 7 8 9 9 9 10 10 10 11 13 15 16 16 17 17 18 19 21 20 18 17 16 14 12 12 13 13 13 14 14 16
5 6 6 8 8 8 9 11 12 13 15 16 17 16 16 15 15 16 16 18 20 19 17 16 17 16 15 16 16 14 15 17
5 7 8 9 11 12 13 14 16 17 17 18 19 19 19 20 21 20 19 18 18 20 21 21 19 19 19 17 16 18 21 20
7 8 10 12 15 17 19 19 20 21 21 22 22 21 21 23 24 25 25 24 24 24 24 24 24 23 23 22 22 21 19 20
12 14 15 17 18 19 20 20 21 23 24 26 28 29 30 32 33 34 34 33 33 32 31 30 29 27 26 26 27 28 28 27
15 15 14 15 16 20 23 25 27 28 30 32 33 35 36 37 37 38 37 37 36 35 36 36 35 34 33 32 32 32 33 34
16 16 16 18 22 26 28 30 32 32 33 34 34 35 36 36 37 38 38 37 37 38 38 38 38 39 39 39 39 39 39 39
23 22 23 24 26 29 31 33 34 35 35 36 37 38 38 39 39 40 39 39 41 42 42 42 42 42 42 42 42 43 44 44
26 27 28 29 30 33 35 36 37 39 39 39 41 43 43 43 43 44 44 43 42 42 42 42 44 45 46 46 48 48 49 49
27 28 31 34 36 38 38 38 39 41 44 45 45 43 44 45 45 47 47 45 42 40 40 40 40 42 44 46 47 47 47 48
31 33 35 35 38 40 40 41 44 45 45 46 49 48 47 47 47 47 47 47 47 47 47 46 46 46 46 46 47 47 47 48
37 37 36 38 41 41 41 44 47 48 49 50 49 50 50 50 50 50 52 53 53 54 54 54 55 53 55 56 53 54 54 54
40 40 40 43 45 46 48 50 52 52 51 52 51 52 53 54 54 56 57 58 59 59 61 62 61 62 63 62 62 64 60 60
41 42 44 46 49 50 51 53 54 52 52 53 55 56 57 58 60 62 63 66 67 66 67 67 68 65 65 66 67 67 68 63
43 44 47 50 52 53 55 54 54 55 57 58 60 62 64 65 66 67 68 69 70 71 71 71 73 72 71 72 71 72 73 72
44 47 50 51 52 53 53 54 56 59 61 62 65 67 68 69 72 74 74 74 74 74 74 75 76 74 76 77 75 73 73 74
47 48 47 49 51 54 55 57 60 64 66 67 69 71 74 76 77 79 79 79 78 76 76 78 78 78 75 73 73 73 71 74
45 46 48 50 52 53 57 62 65 69 70 71 74 76 79 81 81 81 81 82 82 83 82 80 78 79 78 76 76 72 71 71
46 49 52 52 55 60 63 65 70 74 74 75 78 79 81 81 82 82 84 85 85 83 85 87 83 83 85 84 84 84 81 78
51 52 53 55 60 64 68 71 72 74 76 77 77 80 82 84 85 87 86 87 88 89 93 93 93 90 82 83 84 83 81 80

GFSFLT2_500_spd_003.txt.gz
Wind_Speed
5 3 3 4 5 5 6 7 9 10 13 14 14 15 14 13 14 14 15 14 14 14 14 15 16 16 16 15 15 15 15 14
0 2 3 5 6 8 9 10 12 14 16 18 19 21 21 19 18 18 18 18 17 16 16 17 17 18 19 19 19 18 19 19
5 7 8 10 11 13 14 16 17 19 19 20 22 23 24 23 25 25 26 26 26 26 24 24 22 20 19 20 22 23 23 20
11 12 14 15 15 16 17 18 19 20 22 23 25 26 27 29 29 31 31 32 33 32 31 30 29 28 26 25 23 24 27 26
15 15 16 17 19 19 19 21 23 26 27 27 28 29 30 31 34 34 34 34 36 34 34 34 33 32 31 30 29 29 29 29
14 15 17 19 21 22 23 25 28 30 31 32 31 31 33 34 36 36 37 38 38 38 39 38 37 36 35 34 33 33 33 33
17 19 21 23 26 27 28 30 32 35 35 34 34 34 35 36 39 41 41 40 40 40 39 40 41 41 40 39 39 38 38 38
20 23 25 27 30 31 33 33 35 37 38 38 39 40 41 41 43 43 42 42 43 42 42 42 42 42 41 40 40 41 42 43
25 26 27 30 32 34 35 37 39 42 42 41 41 44 43 43 44 43 42 42 42 42 42 41 40 41 40 40 41 43 45 45
28 28 32 34 34 36 36 39 41 42 42 44 47 47 47 46 45 45 46 46 46 46 45 45 45 43 43 44 44 44 46 47
34 32 36 37 38 39 40 43 46 47 48 49 50 50 48 48 50 51 51 51 51 52 52 53 53 53 52 53 51 50 53 55
38 40 39 42 45 44 46 48 51 52 53 53 53 51 51 53 55 56 56 57 57 57 59 60 61 63 63 62 62 63 61 60
41 46 43 45 47 48 50 53 54 54 55 55 54 53 54 57 59 60 61 63 64 64 65 65 67 68 68 68 68 67 69 69
44 44 47 48 50 51 53 55 56 56 56 56 58 58 61 63 66 68 68 69 71 72 73 73 73 73 74 70 73 72 73 77
47 49 49 51 53 54 56 56 56 57 58 59 61 63 67 68 70 71 72 74 76 78 79 78 78 76 75 75 74 75 73 73
47 49 51 52 54 56 55 55 56 58 61 63 64 66 69 71 75 77 77 78 79 79 79 79 79 78 78 77 76 77 73 71
49 52 52 52 52 54 56 56 55 53 57 67 62 67 72 77 79 79 78 78 79 80 81 80 79 80 79 80 81 79 77 78
49 49 49 51 54 56 57 54 54 59 67 70 72 73 76 78 79 79 79 80 81 81 82 82 82 83 82 84 85 85 85 86
44 48 53 56 57 58 60 62 65 67 69 72 74 75 75 76 79 80 80 82 83 84 86 87 89 88 87 89 88 89 87 87
49 53 55 57 59 62 66 69 70 71 73 73 73 74 76 79 80 81 83 83 84 86 90 94 94 95 91 87 79 73 74 69

GFSFLT2_500_spd_006.txt.gz
Wind_Speed
5 2 2 4 6 8 9 10 11 13 14 15 16 16 16 17 17 17 18 18 17 16 17 18 18 18 19 20 20 18 18 18
3 3 4 6 8 9 11 13 15 16 17 18 18 20 20 22 22 21 22 24 24 24 24 24 24 24 22 21 21 21 20 18
6 8 10 11 13 15 16 16 17 18 20 22 23 25 25 23 27 26 26 28 27 27 28 27 27 27 27 26 24 22 23 24
9 11 12 13 15 17 18 21 22 23 23 26 28 28 28 29 26 28 29 30 31 30 29 30 28 28 26 27 28 27 26 26
11 12 14 16 19 20 22 23 25 26 27 29 30 30 29 30 30 31 32 32 34 35 35 34 33 34 33 33 31 31 30 29
11 16 17 19 21 24 25 27 29 30 30 32 33 34 34 34 36 39 41 42 41 40 38 36 35 34 34 35 35 36 36 35
17 19 18 23 25 28 30 32 33 34 33 34 37 38 38 37 39 42 42 41 43 40 38 37 36 35 34 35 35 34 36 37
22 21 22 23 27 30 33 36 37 37 38 38 38 39 40 41 44 44 43 42 40 38 38 38 39 38 36 34 35 37 37 36
29 12 22 26 28 31 34 36 38 40 41 43 43 45 44 45 45 43 41 40 40 41 41 40 40 40 40 41 41 38 38 41
30 22 29 33 34 36 37 39 42 44 45 48 47 46 44 44 44 44 43 44 46 48 48 49 50 50 50 49 48 48 47 45
38 43 39 41 31 44 42 45 46 48 49 53 52 52 49 49 49 48 48 50 52 53 54 55 55 56 56 57 59 60 60 58
39 44 43 43 48 41 51 51 50 51 53 57 52 53 51 52 53 54 56 58 60 61 61 61 61 62 62 62 62 63 65 69
43 44 42 39 47 53 51 52 52 57 57 56 55 56 54 57 58 59 61 64 66 66 66 65 66 68 68 68 69 69 71 70
43 44 46 51 51 54 53 53 56 57 57 57 57 55 53 55 59 65 68 65 69 72 77 76 74 73 74 75 75 73 72 71
46 49 49 49 52 55 56 56 56 56 56 58 63 59 58 59 64 70 76 74 73 79 78 78 79 77 77 78 79 79 77 73
47 48 49 50 53 55 55 56 59 60 61 62 63 64 65 68 73 77 77 76 77 78 79 80 81 79 78 79 79 80 79 82
46 47 50 51 51 53 55 60 60 60 62 64 66 68 71 74 75 77 79 79 79 78 80 78 79 81 81 80 80 82 83 85
41 47 49 50 53 54 55 58 62 64 68 71 73 76 76 76 77 79 81 82 82 85 83 82 84 85 86 86 85 86 86 89
41 44 48 51 57 59 63 65 67 70 75 76 77 78 77 76 78 80 81 82 85 88 90 94 97 93 91 89 89 90 91 92
43 46 50 55 59 63 67 71 74 77 78 78 79 79 78 81 81 83 84 86 90 95 95 98 96 91 87 87 85 80 76 72

GFSFLT2_500_spd_009.txt.gz
Wind_Speed
5 2 1 2 5 8 9 11 13 13 13 14 15 16 19 20 20 20 20 20 20 21 22 22 23 23 21 21 22 24 27 25
0 2 4 6 7 10 12 14 15 17 17 16 18 19 22 24 23 22 21 21 22 22 22 21 23 23 23 23 24 26 29 27
4 6 7 9 10 12 14 16 18 22 22 23 24 23 24 25 26 24 23 22 23 23 24 24 25 24 22 22 23 24 28 29
6 7 9 12 12 13 15 17 20 23 24 26 26 26 25 24 24 24 26 27 29 33 33 33 32 30 27 26 26 26 27 27
11 12 12 10 12 16 19 20 23 24 26 28 29 30 30 30 31 31 32 33 35 35 34 33 33 31 30 30 29 28 29 30
18 13 13 15 16 17 18 22 25 26 29 31 33 34 36 36 37 37 37 37 39 38 38 36 32 29 29 30 29 29 29 29
18 18 11 16 21 24 26 29 31 32 34 35 35 35 37 37 40 40 40 40 39 37 36 34 32 31 30 29 30 32 32 32
18 25 15 11 17 28 30 31 34 36 36 37 37 39 40 40 43 40 39 37 37 35 34 34 35 36 35 35 33 34 35 37
25 1 20 24 36 40 32 25 38 35 41 41 42 43 45 44 45 43 42 40 40 37 37 39 42 43 42 41 41 41 40 40
31 30 30 22 36 37 23 40 37 44 49 47 47 45 45 47 46 46 46 45 45 44 44 47 50 50 50 50 49 49 49 50
37 36 35 32 38 35 33 44 50 48 50 52 54 53 53 50 49 52 53 52 52 52 53 56 57 57 58 57 56 55 55 56
39 40 39 41 41 45 48 48 48 52 52 53 52 51 52 56 56 55 56 56 59 61 63 60 62 63 64 63 62 61 60 60
41 43 44 46 48 49 42 52 53 56 57 54 55 57 58 56 56 57 60 61 62 64 67 70 72 75 74 72 71 70 70 70
42 44 45 47 50 46 51 51 56 57 55 57 59 59 61 63 65 65 66 67 68 71 73 75 75 78 79 79 78 75 74 73
45 46 48 49 49 49 51 54 52 54 56 57 59 61 63 66 69 72 75 76 76 76 77 78 78 77 79 80 82 83 82 79
43 45 47 47 49 47 51 52 54 55 57 60 62 64 68 72 75 77 79 80 82 82 80 79 79 79 80 82 82 84 86 88
40 41 40 42 45 46 49 53 55 57 60 64 68 72 77 80 80 81 83 84 83 83 82 82 82 81 81 82 84 85 88 90
38 40 43 44 46 48 49 51 57 62 66 70 74 78 80 81 83 85 84 83 84 84 83 82 83 84 87 90 90 89 89 95
36 38 41 47 50 53 57 62 67 72 76 79 82 84 85 85 85 85 84 84 84 84 85 86 86 87 89 89 90 91 91 91
38 40 41 44 49 55 60 66 71 76 78 82 83 83 83 82 82 83 85 84 84 85 86 88 89 89 89 87 85 79 74 69

GFSFLT2_500_spd_015.txt.gz
Wind_Speed
12 13 12 8 8 9 10 13 13 14 16 17 19 21 23 26 27 29 30 30 28 26 25 24 25 25 26 28 28 27 27 28
12 12 10 9 10 11 14 16 16 16 17 19 21 24 25 26 26 26 27 28 29 28 29 28 28 28 30 29 30 28 28 29
11 10 9 12 13 14 16 17 17 19 23 23 22 23 23 23 24 26 27 28 29 30 32 34 35 35 34 33 31 29 28 27
9 11 13 14 14 16 18 18 20 22 23 24 25 25 26 27 29 29 29 30 33 34 35 35 36 35 34 34 31 28 26 25
11 12 11 13 16 21 23 18 19 24 25 29 29 26 26 26 30 34 33 32 34 37 37 32 30 33 34 34 31 28 26 26
11 13 16 18 18 21 18 21 31 26 30 33 27 25 29 28 37 37 35 35 34 33 33 32 30 29 30 31 32 32 31 31
15 14 17 19 21 19 19 26 32 37 35 30 29 32 35 35 39 40 39 36 33 32 33 33 32 31 31 31 32 34 36 37
16 16 18 19 11 14 22 26 28 30 31 31 34 36 34 40 39 40 38 38 36 37 37 36 35 35 34 36 36 38 39 41
19 17 18 20 23 26 26 28 29 35 34 38 38 39 40 44 42 37 41 42 41 41 42 43 43 41 41 41 43 44 46 47
15 18 24 17 32 28 27 27 41 43 41 39 42 43 44 45 39 40 41 43 42 42 45 45 47 48 48 49 51 53 54 56
16 18 25 30 32 22 20 43 45 42 41 44 46 46 49 46 43 42 42 42 45 47 49 50 52 54 56 58 59 60 61 62
21 28 27 33 37 33 44 46 39 35 44 47 49 48 47 47 47 48 49 51 53 54 56 58 60 61 63 64 65 68 70 70
23 32 40 44 47 49 42 44 38 44 54 48 46 49 49 50 52 55 58 61 63 65 65 66 67 69 71 73 75 76 76 77
36 41 47 49 50 47 44 41 51 51 49 49 49 50 52 55 60 64 67 70 73 75 77 77 77 79 81 80 81 80 79 79
38 43 46 48 49 49 51 52 50 49 50 50 50 54 59 64 68 71 74 77 79 81 83 84 85 85 86 87 86 85 84 79
44 46 47 50 52 51 50 50 50 50 52 54 57 61 65 69 73 76 80 82 82 85 88 89 88 89 86 85 84 86 88 90
45 48 51 49 46 45 45 46 48 50 53 56 61 65 69 72 77 81 85 88 91 91 92 90 89 89 89 89 88 90 93 93
48 48 44 42 42 44 43 44 48 52 57 62 68 71 75 81 85 88 90 92 92 90 90 91 91 92 92 92 93 93 94 94
40 41 41 39 39 42 45 48 53 59 65 70 74 79 84 87 89 91 92 92 91 92 94 95 93 91 89 87 86 86 84 86
38 34 36 40 43 46 50 55 61 68 71 75 79 84 88 91 92 94 95 97 98 99 99 94 90 82 75 71 74 75 75 70

GFSFLT2_500_spd_018.txt.gz
Wind_Speed
10 8 9 10 10 11 13 14 15 16 18 19 20 21 24 28 29 29 27 27 27 26 26 26 26 28 29 30 30 29 29 29
8 8 9 9 11 14 15 16 17 18 19 20 23 25 28 28 28 26 27 28 30 29 29 30 29 30 30 31 32 31 27 27
5 6 9 11 13 15 18 19 18 17 19 22 25 26 29 31 29 27 26 28 32 32 32 32 33 34 33 32 30 29 28 28
5 8 10 12 14 16 18 19 19 19 19 21 25 30 34 35 28 28 30 33 33 33 34 35 34 33 33 31 29 27 26 26
9 10 11 13 15 19 20 19 17 19 20 26 28 34 34 29 29 32 33 38 38 38 36 35 32 28 28 28 29 29 27 26
8 10 15 17 18 20 24 25 21 24 28 32 31 28 29 33 34 37 36 42 39 37 34 32 31 31 28 29 30 29 30 31
12 15 17 19 19 21 17 19 24 25 24 26 30 30 31 36 40 41 42 46 40 35 34 33 33 31 32 31 31 31 31 32
18 21 22 22 24 24 20 26 27 19 20 29 31 31 34 38 40 43 45 47 43 40 38 38 37 36 36 36 36 37 38 39
20 19 19 20 23 25 23 32 23 20 27 37 36 35 37 40 43 46 46 45 45 42 40 40 39 40 41 42 42 43 45 45
20 19 19 26 24 20 26 22 22 37 39 34 33 34 38 43 47 47 47 45 43 41 43 44 45 47 49 50 50 51 51 52
15 15 23 29 26 21 29 32 42 44 38 34 34 38 47 52 46 45 47 42 44 46 50 52 54 56 59 60 59 60 61 62
14 19 25 35 34 37 43 48 48 39 33 35 46 54 53 52 51 50 48 50 54 57 59 62 63 65 66 66 67 69 71 72
18 20 30 38 39 43 49 52 49 48 53 56 53 51 51 51 49 51 54 59 63 66 69 70 72 74 76 76 76 76 77 78
31 38 42 46 49 52 55 52 53 53 52 51 50 48 48 49 52 58 63 68 72 73 75 78 79 80 82 83 83 82 82 80
41 44 44 48 48 52 52 50 48 48 48 48 48 48 51 56 61 65 69 70 73 78 80 83 85 87 89 91 93 94 94 90
42 41 45 45 51 51 49 49 48 48 48 48 51 54 58 62 65 68 71 76 80 84 87 88 91 93 93 95 96 97 98 98
45 44 46 49 50 49 48 46 45 47 50 53 55 59 64 67 71 75 81 84 86 88 90 94 97 97 96 95 95 96 96 97
47 51 41 45 48 46 43 45 47 50 52 56 61 66 69 73 77 82 87 89 91 94 97 99 96 96 97 99 97 92 88 87
48 44 40 44 44 43 46 49 52 54 57 62 65 69 74 78 81 86 89 92 95 98 99 101 103 104 100 93 80 75 78 74
40 40 45 43 47 50 51 52 54 58 61 62 67 72 76 80 85 91 96 98 100 99 101 105 103 91 78 73 72 76 68 66

GFSFLT2_500_spd_021.txt.gz
Wind_Speed
8 10 11 10 7 6 9 10 12 15 18 20 21 21 24 26 26 27 28 28 27 26 26 28 28 28 27 26 27 29 29 30
10 10 7 9 6 7 10 13 16 19 20 20 21 23 25 24 25 29 30 30 29 25 32 31 28 28 31 31 30 28 27 26
7 7 6 5 5 10 14 16 18 20 22 21 23 23 25 27 27 28 30 29 29 30 37 37 36 34 33 33 32 31 26 25
7 6 5 7 9 14 17 18 21 23 24 22 24 24 27 31 29 27 28 31 32 34 37 38 36 34 31 30 30 29 29 26
4 4 7 10 13 16 19 21 24 27 26 24 27 30 30 29 32 30 30 30 36 36 38 41 36 33 30 28 28 28 27 26
6 8 11 14 17 19 23 26 29 31 27 27 28 27 28 32 33 32 33 35 36 38 40 42 39 37 34 31 31 30 28 26
8 10 12 17 20 23 24 26 23 23 26 25 21 24 29 30 33 35 36 36 39 41 43 45 45 39 38 36 34 34 34 32
12 16 17 18 20 23 26 30 29 28 25 17 25 29 30 36 35 33 34 39 44 45 45 46 43 39 35 35 38 39 40 40
15 17 17 22 24 24 25 27 29 26 22 40 32 31 34 37 33 33 43 49 44 44 44 45 42 38 39 42 45 47 48 48
17 17 21 25 27 33 33 29 21 21 38 38 39 33 34 36 43 52 50 47 45 45 46 44 43 45 50 53 55 55 56 56
23 23 22 25 29 29 26 28 40 37 40 38 34 44 48 50 52 52 50 48 44 44 45 48 52 56 59 61 62 64 66 67
21 21 25 28 26 30 39 37 41 44 43 39 47 47 48 47 48 48 47 46 47 50 53 57 60 64 66 69 71 72 73 73
19 21 27 41 45 49 45 46 45 49 53 51 47 45 45 45 45 46 47 50 55 60 64 65 67 69 73 74 74 75 75 77
22 32 36 39 41 45 49 50 51 51 49 46 44 44 44 45 49 51 55 59 62 63 64 67 70 74 76 78 80 80 82 87
31 36 41 43 44 46 48 50 49 47 49 47 47 48 51 53 55 58 61 63 64 66 69 73 79 83 86 90 92 94 97 97
37 39 39 42 47 51 52 49 48 49 48 49 51 53 54 56 59 61 62 64 69 72 78 82 86 90 94 98 102 105 106 107
37 40 40 50 50 47 45 48 48 47 49 51 53 55 57 60 61 63 67 72 76 81 86 90 92 96 100 103 105 106 108 110
37 39 41 42 44 45 45 48 48 50 53 54 55 57 59 61 64 69 73 78 84 89 92 94 97 101 105 110 109 100 91 86
33 35 38 40 43 46 50 51 51 52 53 56 57 58 62 66 70 75 80 86 90 93 94 98 103 108 108 100 89 79 72 66
32 36 39 42 46 48 47 50 54 56 56 57 59 63 67 71 75 80 86 91 93 95 100 105 106 106 92 76 64 57 52 48

GFSFLT2_500_spd_024.txt.gz
Wind_Speed
10 13 14 10 10 8 8 7 8 10 14 17 20 23 22 23 22 24 25 26 28 26 25 23 23 27 27 27 29 30 30 29
12 13 12 10 10 10 9 9 12 15 18 21 23 23 22 24 22 25 26 26 26 25 23 25 27 32 33 32 30 31 32 30
9 10 10 11 11 9 10 13 17 20 22 21 21 23 26 25 24 27 28 28 29 27 25 29 32 34 37 35 34 31 30 31
12 11 11 11 11 12 16 18 19 21 23 24 27 26 28 30 30 33 30 27 28 27 30 31 32 35 37 35 34 32 30 31
9 8 9 11 13 15 16 19 22 25 26 27 27 27 28 31 31 31 28 25 28 31 33 33 35 36 37 38 38 34 31 31
8 9 10 11 13 16 20 23 25 26 28 29 28 27 28 28 28 30 27 34 35 33 31 35 37 41 42 43 42 38 36 34
8 9 8 11 16 19 22 26 29 30 30 27 28 32 31 30 31 37 38 35 36 31 37 44 43 41 42 42 40 37 35 34
9 9 12 13 15 20 25 29 31 27 31 27 17 21 33 40 35 36 36 33 34 43 50 45 43 43 43 42 40 38 39 39
13 13 15 16 22 27 27 28 17 18 14 35 30 40 26 29 36 41 44 44 48 49 45 42 43 41 40 39 40 42 45 47
15 16 15 18 22 30 33 24 34 35 39 35 31 32 33 37 43 48 47 46 46 46 44 41 40 40 41 44 46 49 53 56
17 21 23 25 30 23 23 33 39 45 35 35 32 34 35 39 40 42 43 43 44 45 46 45 46 47 50 53 55 57 59 61
21 23 24 26 33 41 37 45 40 40 40 40 39 37 38 39 39 40 41 43 45 47 50 52 55 56 56 58 58 59 61 64
22 23 24 28 37 41 41 41 45 47 44 43 41 40 41 41 43 47 50 52 53 54 57 59 59 59 61 62 64 68 72 74
24 25 28 34 41 44 45 46 52 50 49 46 45 45 46 48 49 52 54 56 58 59 59 59 63 66 67 71 73 77 82 85
24 25 30 37 40 42 45 49 50 46 47 49 50 50 51 53 54 56 56 57 58 60 62 66 69 73 76 81 83 87 89 91
28 32 32 31 33 37 40 42 44 47 49 51 51 51 55 54 56 57 58 59 62 66 69 74 78 82 86 89 91 93 96 97
18 20 23 27 30 34 38 41 45 48 51 54 52 55 57 59 59 59 61 64 68 73 77 81 85 89 92 94 98 101 104 109
19 22 25 28 32 36 39 42 46 50 51 53 57 62 62 61 60 62 65 69 74 79 84 89 91 91 96 101 106 108 104 90
23 27 30 34 37 41 44 46 49 50 52 56 60 61 60 60 62 65 71 77 81 86 90 89 92 99 105 109 107 91 77 64
26 30 33 36 39 43 46 49 52 52 54 58 60 59 60 61 65 70 76 80 85 88 88 94 100 105 106 94 79 66 55 48

GFSFLT2_500_spd_027.txt.gz
Wind_Speed
23 19 13 9 4 5 7 8 8 8 10 13 16 20 23 23 25 25 26 24 22 24 24 24 23 23 24 26 29 29 28 30
5 7 7 7 6 9 10 10 9 10 14 18 20 23 26 25 25 27 27 23 25 26 28 26 26 27 27 30 31 31 30 30
4 9 4 8 9 9 9 9 13 16 18 20 24 26 27 27 28 29 29 28 31 32 32 30 30 31 32 34 34 35 36 35
1 4 4 7 8 10 12 13 16 18 21 22 26 28 29 29 30 31 30 28 28 27 28 30 33 35 36 35 35 37 38 40
3 5 6 8 10 12 13 14 18 21 23 27 29 28 31 31 32 32 29 24 29 32 31 34 37 35 35 39 42 42 42 42
4 7 8 9 10 11 14 17 21 23 25 29 31 33 31 31 31 31 28 35 33 35 37 37 36 35 39 42 43 41 41 43
7 7 8 10 13 16 19 20 22 26 29 30 30 30 30 27 32 26 33 38 36 37 38 40 39 43 49 45 41 41 40 39
7 9 10 13 15 18 20 26 27 25 15 17 34 25 21 38 36 30 35 42 42 45 47 45 48 50 45 42 40 40 39 39
11 13 15 16 18 22 27 31 33 25 22 39 45 29 27 31 37 32 35 40 48 50 48 47 46 43 43 42 40 40 41 43
14 16 18 21 25 28 31 21 19 36 39 40 46 44 38 38 34 36 39 40 42 42 42 42 43 45 46 46 46 48 49 51
15 19 22 24 28 26 32 36 38 41 38 39 38 33 31 31 32 34 37 38 39 41 44 46 47 48 48 48 51 53 55 56
21 23 26 27 28 29 37 36 40 41 41 43 41 39 39 38 37 37 40 44 48 49 50 51 52 54 54 55 55 57 59 62
24 26 28 29 31 34 37 38 35 35 40 41 41 42 43 44 47 46 47 49 51 51 51 53 53 55 56 58 58 62 66 70
27 29 29 28 29 33 34 34 36 38 40 41 42 46 48 50 46 47 50 54 55 56 57 54 56 58 61 64 66 69 72 76
26 27 27 29 27 27 28 30 34 37 40 42 44 46 48 50 51 53 59 62 59 57 58 58 61 66 70 74 77 79 82 82
22 19 19 21 23 26 29 33 36 40 44 47 49 49 51 53 56 59 61 60 59 60 61 64 69 73 78 80 83 85 87 90
14 16 18 22 25 29 32 35 39 43 47 50 52 54 55 56 57 59 59 59 60 62 65 70 75 80 83 87 88 90 95 100
16 19 22 25 29 32 35 38 41 45 49 52 54 57 58 60 60 63 64 63 63 67 72 76 80 83 87 89 92 99 103 104
20 23 27 31 34 37 40 43 46 49 52 54 55 57 59 60 62 65 64 65 68 71 76 80 84 88 92 94 102 101 95 86
27 30 32 36 39 42 45 48 50 53 54 55 58 60 61 62 64 65 64 66 69 74 80 83 88 94 96 104 101 90 81 72

GFSFLT2_500_spd_030.txt.gz
Wind_Speed
18 26 29 19 14 9 9 7 8 9 8 10 14 17 18 20 21 23 24 25 26 26 27 27 30 26 27 23 24 27 31 31
20 20 25 16 6 12 11 9 9 10 15 15 16 18 20 22 24 25 28 27 26 27 31 30 29 27 27 25 27 30 34 36
15 16 8 6 9 6 7 8 9 10 12 16 17 19 21 24 25 28 29 29 27 26 26 25 27 27 30 35 35 36 35 38
13 8 11 15 5 3 5 8 9 12 13 16 18 22 24 24 26 31 30 30 28 22 25 29 31 37 39 36 37 40 41 40
11 7 4 3 1 5 8 9 11 13 15 18 19 24 25 26 26 25 25 24 22 22 35 33 34 31 36 42 42 43 44 47
2 1 1 3 5 9 10 12 13 16 16 17 17 23 26 25 26 27 23 30 30 33 44 42 39 38 39 41 43 45 47 50
4 4 5 6 8 11 13 13 17 21 21 18 12 24 32 33 25 25 28 41 48 43 44 39 42 44 43 41 39 43 44 43
4 5 6 9 10 12 13 17 21 26 23 25 24 31 34 45 28 28 32 37 35 39 41 41 46 43 42 41 43 41 40 41
7 9 11 13 14 17 18 27 19 12 35 33 34 32 29 25 27 27 28 31 35 34 38 37 39 40 41 42 43 43 46 47
9 11 15 18 19 22 21 24 24 31 32 34 31 31 31 32 30 28 32 32 31 31 36 40 42 44 43 42 43 44 45 46
13 16 18 22 22 24 25 23 28 31 33 33 28 29 32 35 36 37 38 39 40 38 39 41 45 47 47 48 48 49 50 52
17 21 23 26 27 28 27 27 29 28 25 25 29 32 34 36 36 38 38 39 42 46 48 50 52 50 49 49 48 47 50 54
20 22 25 28 27 24 26 28 23 24 28 33 36 39 41 43 44 44 44 45 47 50 52 53 50 49 48 49 51 54 58 61
24 25 26 27 23 23 22 22 25 29 33 36 39 41 43 45 47 48 50 51 52 53 55 55 52 52 54 55 58 61 65 69
27 26 24 20 18 19 22 25 29 32 36 38 42 44 46 48 50 51 52 55 57 56 57 57 57 55 58 63 67 70 75 79
26 19 16 18 20 22 26 30 34 37 40 41 44 47 50 52 53 54 55 57 59 59 60 60 59 62 65 70 76 79 81 83
16 15 18 21 24 27 32 36 40 42 44 47 49 51 51 52 54 57 59 61 61 59 61 61 62 66 70 73 76 78 82 89
15 19 21 25 29 33 37 41 44 46 49 51 52 54 56 56 58 60 62 63 62 62 64 64 68 71 76 80 84 89 94 99
21 24 28 31 35 38 42 45 47 50 51 54 55 56 56 59 61 61 62 63 62 64 64 68 71 75 78 83 87 92 100 104
27 31 34 37 41 43 47 49 51 53 55 57 57 59 52 61 61 63 62 62 63 65 67 69 72 77 80 83 91 96 98 96

GFSFLT2_500_spd_033.txt.gz
Wind_Speed
27 30 48 50 26 13 13 21 21 14 12 14 9 16 17 18 19 20 20 22 25 26 25 25 27 24 21 22 26 27 27 28
26 26 46 21 13 9 8 15 13 10 7 8 11 12 15 17 18 21 23 24 25 26 24 21 18 23 27 29 28 32 32 32
36 21 21 13 8 15 16 13 11 8 9 9 9 11 16 18 20 21 25 26 26 25 20 18 19 28 28 30 31 36 36 36
24 19 23 20 17 13 8 5 5 5 8 9 12 15 19 20 23 25 26 24 20 19 18 24 33 42 31 30 32 34 38 42
15 10 18 15 13 8 4 2 5 8 9 12 16 18 14 16 13 21 22 27 23 22 25 31 40 37 32 33 35 39 41 41
16 17 12 8 4 3 2 4 6 8 11 14 20 21 22 22 22 25 27 24 24 29 33 37 37 36 34 34 36 37 38 40
10 8 6 4 2 2 4 5 8 12 14 16 16 17 24 26 26 25 23 20 24 27 26 27 32 34 36 38 39 38 37 39
8 6 3 2 3 2 3 8 10 12 6 20 14 20 22 17 16 19 20 21 23 25 27 30 32 36 38 39 40 40 42 43
6 5 6 5 9 8 10 12 15 14 18 21 22 18 16 17 21 24 26 26 26 27 28 30 32 35 39 42 42 42 42 44
4 6 8 11 13 14 14 16 16 15 20 20 14 16 19 22 25 27 29 29 30 32 33 35 37 40 42 45 46 43 41 43
9 12 14 14 16 18 18 17 17 19 17 14 17 19 22 24 26 28 30 32 34 35 37 40 43 45 46 47 47 45 43 45
11 15 16 18 17 17 18 16 17 13 13 17 21 23 26 29 31 34 36 38 41 43 44 46 48 48 47 46 45 45 45 47
15 18 18 18 19 16 13 13 15 17 21 24 28 30 34 35 37 38 40 43 45 46 46 48 50 50 49 48 46 47 49 51
22 22 20 20 17 12 15 17 21 25 27 31 35 38 41 43 44 45 47 48 48 49 49 52 54 53 52 50 49 50 53 58
21 19 21 14 15 18 19 22 26 30 33 37 41 44 46 47 48 49 50 50 50 51 52 55 56 55 54 53 54 56 59 62
21 17 13 16 18 22 24 28 32 35 38 42 46 48 50 51 51 53 55 56 54 56 57 58 57 56 55 57 60 63 67 69
18 12 14 19 22 27 29 33 37 41 44 46 48 50 51 53 55 57 57 55 55 61 59 59 58 54 56 59 63 66 67 72
14 14 19 25 29 32 36 39 43 46 49 51 53 55 56 56 57 58 57 53 61 62 62 61 58 59 61 63 66 70 73 77
17 20 24 29 33 37 41 45 48 51 53 55 57 58 57 58 57 55 50 61 61 61 62 61 62 63 65 68 70 75 81 84
22 25 28 32 37 42 46 49 51 52 54 55 56 56 57 56 55 52 56 60 62 62 62 63 65 67 70 74 79 85 86 81

GFSFLT2_500_spd_036.txt.gz
Wind_Speed
33 36 39 31 26 43 42 28 19 6 7 9 12 15 15 16 17 18 21 22 23 25 27 23 23 17 19 21 25 24 22 23
41 42 31 31 43 27 16 9 9 11 13 14 14 15 19 18 22 23 23 24 26 28 27 24 22 16 21 30 33 33 31 32
28 30 23 19 17 10 9 15 22 17 13 12 13 17 18 19 19 20 22 24 25 28 25 20 19 19 24 33 36 35 37 37
15 24 28 16 10 22 19 15 11 10 11 13 15 18 16 17 21 16 21 18 20 20 23 22 24 27 31 33 34 36 36 38
15 17 19 22 19 15 13 11 11 9 9 9 10 14 17 17 20 17 20 26 27 27 27 27 30 33 35 33 34 34 35 38
21 16 20 19 12 10 6 3 4 5 4 8 12 10 8 15 16 16 22 22 21 21 23 23 29 30 30 30 32 34 35 37
17 17 13 11 10 7 4 4 4 5 6 7 10 11 15 16 13 11 12 14 17 19 23 27 28 30 32 34 35 36 36 38
10 12 11 10 8 6 6 5 6 8 9 10 14 16 13 9 11 14 17 20 23 26 29 28 30 32 34 35 37 39 40 42
10 9 7 6 5 2 5 7 8 10 11 14 16 8 7 10 15 19 23 25 26 27 28 30 32 33 34 36 38 40 42 44
5 5 4 6 5 5 8 9 9 10 11 12 7 11 11 16 20 22 24 27 29 30 32 32 34 35 37 40 42 43 45 46
4 5 7 8 8 10 9 11 9 10 6 8 11 14 17 21 24 27 30 32 33 33 34 36 36 37 39 42 45 47 48 46
9 11 11 10 9 11 9 7 5 6 8 13 16 20 23 26 28 31 33 36 36 37 38 39 38 39 42 46 48 49 49 46
14 14 11 10 10 9 5 4 7 11 15 20 23 26 29 31 33 35 37 41 42 43 44 43 43 44 48 50 51 51 49 48
15 13 11 11 6 6 9 10 15 19 22 26 28 31 33 35 37 40 43 45 47 48 48 49 48 49 54 52 52 51 49 49
13 13 11 6 6 9 13 16 21 24 27 32 35 39 41 42 44 47 49 50 51 52 52 50 47 52 57 55 54 51 51 52
12 9 8 7 10 15 20 23 28 31 34 38 41 43 45 47 48 50 51 52 52 51 50 49 49 57 56 56 54 54 57 58
8 6 9 13 17 22 26 30 34 37 40 43 46 48 48 49 50 51 52 53 53 52 50 58 56 57 59 57 56 60 63 65
9 10 13 18 22 27 30 34 38 41 44 47 48 50 52 53 54 54 53 53 54 55 53 55 62 63 62 60 62 66 68 69
13 14 18 23 28 30 34 38 42 46 48 49 51 52 53 53 54 55 55 55 54 56 56 58 60 62 61 65 69 70 71 73
17 19 24 29 32 36 40 44 49 51 51 53 54 54 54 55 55 58 58 57 56 62 60 61 61 63 66 70 73 77 79 80

GFSFLT2_500_spd_039.txt.gz
Wind_Speed
34 42 46 40 33 26 28 33 40 43 34 8 10 13 14 16 21 19 16 24 28 30 30 30 28 27 22 20 21 23 25 26
40 47 58 44 28 25 27 40 40 32 17 13 15 16 14 14 13 15 22 27 29 26 25 25 23 21 20 20 21 30 36 38
35 39 34 35 30 17 20 21 20 17 19 15 12 12 13 11 17 23 25 24 20 19 21 24 25 25 27 25 28 34 38 39
28 37 25 20 20 24 24 17 16 15 14 13 12 12 14 15 17 19 20 19 19 25 28 27 28 30 32 33 35 36 34 35
22 26 30 29 22 22 23 18 14 10 12 11 9 12 14 15 15 17 19 23 22 24 23 21 22 23 25 28 30 33 34 36
23 23 17 20 15 13 12 12 10 8 8 8 4 7 9 11 14 18 16 14 15 16 20 21 22 24 27 29 32 34 36 38
14 18 22 16 11 12 10 10 9 5 8 9 6 7 11 16 16 9 10 15 19 22 24 25 27 29 30 33 35 38 40 41
20 17 14 12 10 8 7 7 5 5 6 10 12 14 15 12 8 11 15 21 23 26 29 29 31 32 34 36 38 39 40 41
11 10 10 10 10 11 6 7 8 6 8 9 15 13 9 10 12 17 22 26 27 30 33 34 37 38 39 40 41 41 41 42
10 8 6 6 6 5 4 6 7 7 8 9 9 7 12 14 18 21 27 31 32 36 38 39 41 42 43 44 45 44 43 43
6 4 2 2 4 4 6 5 6 6 7 5 7 12 16 19 22 26 30 35 36 40 40 40 42 44 44 45 46 46 44 45
3 2 2 6 4 5 5 3 4 5 6 9 13 17 20 25 29 32 35 38 40 41 41 42 43 44 44 45 47 44 48 48
1 2 3 4 2 2 3 3 5 6 10 14 19 23 25 29 33 36 38 41 42 43 42 44 44 44 45 46 47 44 47 48
1 3 4 4 4 2 3 4 8 12 15 20 24 27 30 34 37 40 43 44 44 45 45 46 47 47 47 47 49 52 51 51
4 3 3 5 4 6 6 10 15 18 21 25 29 32 35 39 42 44 44 46 47 48 48 48 48 50 52 50 52 56 57 56
6 7 4 5 6 9 13 17 21 24 27 31 34 37 42 45 45 46 46 47 47 45 48 48 49 49 50 53 54 58 59 58
7 7 6 7 11 15 20 23 28 31 33 37 40 44 47 47 46 46 47 49 50 49 53 54 55 54 55 58 60 62 62 61
6 8 8 11 15 20 25 28 34 35 39 43 45 46 46 46 46 47 49 51 49 52 55 58 57 56 59 62 66 65 65 68
9 9 13 16 20 25 30 34 37 39 47 46 48 49 49 45 47 50 52 54 54 57 57 58 60 61 63 67 67 70 73 75
10 13 18 22 27 31 34 39 43 43 43 47 48 51 47 47 49 49 53 56 57 58 61 61 64 67 68 68 71 76 78 79

GFSFLT2_500_spd_042.txt.gz
Wind_Speed
47 40 33 33 38 33 32 26 26 28 33 36 35 14 10 10 10 14 19 16 19 20 22 28 28 26 21 21 19 20 22 24
41 50 34 38 33 40 35 26 24 23 33 30 13 10 10 11 10 15 18 15 16 23 25 23 27 24 24 25 23 25 26 28
42 49 53 42 45 40 34 35 23 27 28 12 11 10 11 12 11 12 15 20 24 22 26 22 26 28 26 24 24 25 26 28
25 24 37 44 41 17 17 22 24 19 17 17 15 12 10 12 16 16 16 18 24 24 22 24 22 19 19 21 25 28 30 32
18 19 24 37 33 21 23 25 17 19 14 12 11 11 12 16 19 18 17 18 20 19 17 17 21 24 25 26 28 29 32 34
14 17 28 29 34 24 26 19 14 12 9 10 10 13 17 16 13 12 15 14 12 14 16 20 24 27 28 30 31 32 35 37
8 19 22 19 18 18 12 9 10 10 11 13 12 8 5 9 11 15 11 11 14 19 22 26 29 30 31 33 34 35 37 39
18 17 16 17 10 10 9 10 10 9 8 11 12 15 10 11 6 7 11 16 19 24 28 29 32 34 35 37 40 40 40 42
17 15 16 18 16 15 15 15 15 9 9 10 10 12 12 6 8 12 17 22 26 28 31 33 36 39 40 42 44 44 43 45
13 10 10 10 11 12 10 11 12 11 8 9 8 9 7 10 13 18 22 26 30 32 36 38 41 43 44 46 47 47 47 46
11 9 9 10 9 11 11 12 12 10 9 6 5 6 11 14 19 23 26 31 35 38 41 43 45 46 46 47 47 47 48 47
7 6 8 7 6 7 9 8 8 7 7 6 8 13 16 20 23 27 32 36 39 42 44 45 45 45 46 47 48 47 46 46
5 3 4 6 6 5 6 7 8 8 9 11 15 17 21 24 28 32 37 40 43 45 46 47 48 48 48 47 47 47 46 46
5 6 5 7 7 8 8 8 8 11 14 17 20 23 25 29 33 37 40 43 44 44 45 44 45 45 45 45 46 48 48 49
7 8 10 11 11 12 11 11 13 15 18 22 26 28 30 34 37 40 42 43 43 44 43 42 46 45 46 51 55 52 51 53
7 10 12 13 15 15 13 13 17 20 22 27 30 34 32 39 41 40 42 41 42 43 42 45 46 49 53 52 54 56 55 56
11 12 13 14 17 16 14 17 21 23 26 31 38 34 38 46 41 42 40 41 42 43 45 50 51 52 56 57 58 60 61 63
13 12 13 13 11 13 17 21 24 27 30 33 37 38 47 44 43 46 45 46 47 46 49 51 57 57 59 60 61 63 65 69
12 15 9 13 15 19 21 25 28 32 35 36 37 43 48 45 47 49 49 48 44 47 58 56 59 60 61 64 67 70 73 76
14 15 10 16 19 23 26 30 33 35 35 36 39 43 46 48 48 52 53 45 51 52 57 58 60 64 66 69 72 76 80 83

GFSFLT2_500_spd_045.txt.gz
Wind_Speed
33 33 30 35 44 31 27 26 30 25 25 22 20 26 27 14 13 15 14 14 15 17 18 21 19 20 25 24 20 22 22 22
31 27 41 42 51 29 28 33 32 24 18 17 22 27 13 14 11 10 12 11 12 16 18 19 20 24 24 24 21 19 18 21
26 32 53 47 44 35 36 38 34 25 20 19 16 14 14 12 11 8 10 13 15 20 21 20 22 20 14 16 18 21 24 26
31 26 30 42 39 35 36 26 23 17 21 17 17 16 14 11 9 11 13 16 18 18 18 17 15 13 16 19 22 25 27 29
27 29 35 35 44 43 28 26 17 16 12 18 16 16 13 12 14 16 17 17 16 13 7 9 13 18 21 24 26 29 30 32
20 22 19 20 20 36 33 23 16 17 19 13 9 11 14 16 18 18 13 13 9 8 12 15 18 22 25 28 29 32 34 36
18 19 19 23 25 28 26 19 25 19 15 14 15 12 8 9 11 12 15 10 9 13 17 20 22 25 28 31 34 36 38 40
11 16 21 23 19 20 19 12 11 13 11 12 16 12 11 7 12 9 8 10 14 18 21 23 27 30 33 36 38 40 41 41
21 22 20 18 16 13 11 12 13 11 11 10 13 13 15 16 10 10 11 16 20 23 26 29 33 35 38 39 40 42 42 42
14 14 14 13 11 11 9 9 11 15 15 12 12 11 13 11 12 14 17 19 25 28 31 34 36 38 40 41 43 43 43 43
9 8 7 7 6 8 10 12 14 15 15 12 12 11 10 12 14 18 22 25 29 32 34 37 38 40 42 44 45 45 44 44
9 8 7 7 10 11 13 14 14 15 14 12 11 11 13 15 18 23 27 29 33 36 38 40 42 43 45 46 45 44 45 45
11 10 9 9 8 8 11 13 13 13 12 12 13 13 16 20 24 28 30 32 35 37 40 43 44 46 46 44 45 44 44 44
9 9 8 9 8 9 9 10 11 13 14 13 14 18 20 25 29 31 31 35 37 40 43 44 45 45 45 43 44 44 44 46
9 10 10 10 11 12 13 14 14 14 14 17 20 22 25 29 33 34 36 38 40 43 44 47 47 46 41 45 49 49 51 51
9 9 11 12 14 15 17 15 14 16 20 22 26 27 30 33 35 35 39 41 41 45 47 48 47 47 48 53 52 53 55 55
12 13 15 16 17 17 17 16 18 22 23 25 26 31 36 36 40 36 41 43 45 46 46 52 46 49 46 58 59 59 60 63
17 16 19 16 15 20 14 20 22 24 25 27 31 33 38 40 39 41 46 46 49 53 49 52 45 54 56 60 63 63 64 66
22 19 20 18 13 14 18 22 24 25 29 31 33 35 37 38 42 48 49 51 48 48 60 49 57 61 64 65 66 65 69 72
20 19 20 23 18 17 22 25 27 29 30 30 32 34 36 40 46 53 54 48 54 58 61 62 59 63 63 68 69 72 74 77

GFSFLT2_500_spd_048.txt.gz
Wind_Speed
31 29 30 31 32 38 26 33 33 24 29 29 24 16 16 20 23 24 21 17 15 14 14 15 18 17 20 21 22 22 17 15
28 25 27 35 38 41 45 32 32 25 29 26 22 20 19 20 22 16 16 14 14 16 15 17 18 18 18 17 12 13 15 18
27 28 28 31 32 39 60 47 30 38 34 26 22 24 17 15 14 14 13 12 13 13 15 19 21 18 14 12 15 18 21 22
28 27 32 32 33 38 41 41 57 31 29 22 20 17 15 14 13 14 13 12 12 14 15 13 10 10 12 15 19 22 24 26
31 31 34 33 20 32 42 45 26 23 26 20 20 17 17 15 15 14 13 16 13 13 12 8 9 13 16 20 23 27 29 32
27 27 29 26 26 30 39 40 29 30 29 21 18 17 15 14 13 15 16 11 10 8 9 11 15 17 21 25 28 31 33 34
27 37 33 29 29 26 25 43 35 29 22 22 18 15 13 11 12 11 10 13 12 10 13 15 19 23 26 29 32 34 36 39
29 32 33 30 25 18 26 32 28 24 21 17 15 16 11 9 7 11 10 11 10 12 16 19 23 27 30 32 36 37 39 41
19 24 23 23 22 25 26 25 20 16 15 13 10 11 13 18 12 11 11 9 13 16 20 23 28 32 34 38 40 40 42 44
19 20 20 18 16 15 14 13 11 10 10 9 11 14 17 18 15 13 11 14 17 21 25 28 32 36 38 41 42 42 44 45
13 12 12 12 10 9 8 8 10 10 11 11 13 13 14 12 10 13 15 18 21 25 29 33 37 40 41 43 43 46 47 46
9 10 10 9 7 7 9 10 12 12 13 13 14 13 11 10 13 16 20 22 25 30 33 37 39 41 42 43 45 47 47 45
8 8 8 8 8 7 10 10 11 12 13 14 13 12 12 14 18 21 23 27 30 33 36 39 41 43 45 46 46 45 46 43
7 6 5 5 5 7 7 9 10 12 13 12 12 12 17 21 22 25 29 31 34 36 38 40 42 43 43 47 47 46 45 48
8 7 7 7 8 9 8 9 10 10 11 13 16 19 23 26 29 32 33 35 34 35 38 42 43 48 48 50 52 48 53 54
9 9 9 10 11 14 12 14 14 15 15 17 21 25 27 30 36 38 38 37 37 35 40 43 46 46 48 54 52 52 57 62
12 11 12 13 14 16 17 19 19 17 18 22 25 27 29 32 36 39 38 40 40 43 48 52 51 51 50 59 61 59 59 61
19 17 16 18 19 18 18 19 20 20 20 24 28 30 33 34 36 39 41 41 44 48 52 53 52 57 57 60 62 57 63 67
22 18 21 24 23 19 19 20 20 19 23 26 30 33 32 34 37 39 42 43 48 48 51 52 56 59 63 64 62 61 67 67
24 23 25 26 24 24 24 23 21 23 26 29 30 32 34 36 38 38 41 47 51 54 56 55 62 63 65 57 66 70 72 72

GFSFLT2_500_spd_051.txt.gz
Wind_Speed
32 35 33 30 31 29 29 29 34 30 33 27 24 28 29 21 20 20 21 22 23 20 18 15 16 16 16 18 19 16 11 10
37 42 28 30 31 32 34 34 40 43 40 27 33 33 23 25 20 19 18 18 15 13 13 16 16 16 18 17 16 13 14 16
31 31 25 25 16 19 36 30 37 41 42 36 29 30 27 25 18 16 17 13 12 13 14 16 15 18 17 13 13 15 17 19
31 32 31 24 21 30 26 42 33 42 49 40 29 25 32 31 17 14 14 13 12 12 12 12 15 10 7 11 15 19 22 23
33 31 32 29 30 36 31 27 40 40 32 41 22 28 30 19 15 14 14 13 11 10 13 12 11 10 12 14 19 23 25 27
36 32 31 29 27 44 29 32 34 40 41 40 24 26 22 17 15 14 12 11 12 10 11 10 11 13 16 20 24 27 29 31
27 29 25 30 41 33 27 31 42 27 27 31 30 25 15 15 14 13 12 11 12 12 10 11 13 17 21 25 28 31 34 37
25 29 26 24 29 32 27 29 30 24 34 35 26 18 16 13 10 9 7 10 12 8 10 14 17 21 25 28 32 35 38 40
27 32 36 39 27 31 33 23 16 30 24 22 18 16 14 13 12 7 7 9 8 10 13 18 21 24 27 32 35 39 39 41
19 32 39 37 24 14 14 19 22 20 18 15 13 12 13 10 13 13 9 10 11 14 18 22 24 27 31 34 36 39 41 45
14 17 19 20 20 17 17 15 15 13 11 11 11 10 12 10 12 13 12 13 15 20 23 25 26 29 32 35 39 41 43 43
9 11 12 12 11 8 8 8 9 10 12 12 11 11 10 10 10 11 14 17 21 24 26 29 30 32 35 36 40 42 43 42
5 5 5 4 4 5 6 7 9 11 11 12 12 10 9 9 12 16 18 22 25 27 28 33 32 32 35 37 40 40 43 44
5 4 3 2 2 2 4 6 7 11 12 12 12 11 12 14 16 20 24 26 29 30 33 36 33 34 36 41 45 49 45 44
8 7 7 6 5 4 6 7 9 11 10 10 11 11 13 17 21 26 30 33 35 37 39 39 36 39 46 50 50 53 55 55
10 9 10 10 9 9 9 9 11 11 10 11 13 15 18 23 26 30 33 34 37 38 40 37 39 43 45 46 49 52 56 60
12 11 11 11 12 14 15 14 16 16 15 16 17 18 21 26 29 32 34 37 38 40 40 43 43 50 52 54 61 60 62 63
16 16 16 16 17 18 19 18 17 20 21 20 20 21 26 29 32 33 34 37 38 41 41 43 47 52 56 62 61 67 71 69
20 18 17 16 20 23 20 17 21 22 25 22 20 24 29 32 34 34 36 38 39 41 43 47 50 54 58 61 67 68 71 68
20 21 19 24 33 16 24 14 20 26 22 17 22 29 31 34 35 36 37 33 39 41 44 46 49 56 59 65 71 67 68 63

GFSFLT2_500_spd_057.txt.gz
Wind_Speed
23 20 15 14 24 24 28 22 27 30 27 27 27 29 29 28 30 29 25 18 18 18 18 19 16 14 14 6 5 8 7 5
23 24 19 20 23 28 35 29 34 32 27 27 26 27 32 34 30 27 26 22 17 18 20 15 12 10 8 6 8 4 7 8
27 23 22 20 21 28 26 35 33 30 30 27 27 30 33 37 33 24 24 21 19 18 13 11 11 8 6 6 6 6 6 8
25 21 17 21 20 17 14 16 32 32 33 31 25 30 37 41 38 33 27 22 19 16 12 12 9 7 6 4 6 7 7 11
23 23 19 20 18 18 20 19 17 25 30 30 35 29 37 31 37 31 30 24 19 15 13 11 9 8 7 8 6 9 11 12
22 23 21 22 20 24 18 21 24 20 25 27 32 30 30 40 30 34 26 22 22 18 14 11 8 11 10 9 9 11 12 13
24 24 24 22 26 21 29 27 28 29 28 26 17 21 28 31 38 26 21 23 17 16 13 12 11 12 11 11 12 11 14 15
26 24 24 27 21 25 28 26 29 34 30 26 23 17 27 25 26 22 24 18 16 15 13 12 14 12 12 12 14 14 16 17
15 19 23 22 19 22 22 22 20 15 22 25 21 22 23 23 25 25 17 13 14 14 16 14 13 12 13 14 16 18 18 20
8 15 16 22 25 23 18 20 16 19 22 19 11 13 16 27 25 19 13 11 13 14 14 13 12 12 16 17 20 21 21 22
15 7 14 18 20 20 21 19 23 23 20 17 11 18 26 22 18 15 12 11 13 14 13 13 13 16 18 20 21 22 24 25
21 21 18 6 10 7 10 14 16 17 20 23 28 23 18 15 11 11 14 14 15 13 12 14 17 21 23 22 24 26 24 26
15 17 16 18 16 17 18 16 19 19 19 17 15 11 10 10 11 12 14 13 12 13 15 19 23 25 27 28 27 27 28 31
13 15 14 14 13 12 10 9 11 11 12 11 10 9 9 9 12 14 14 12 13 16 21 23 26 28 28 31 32 32 33 35
11 13 13 12 12 11 9 8 8 7 7 7 8 8 11 13 14 12 11 13 15 19 24 27 30 31 31 33 33 34 36 37
8 8 7 6 6 7 8 7 5 4 6 7 10 12 13 14 13 12 14 17 19 23 25 29 30 31 33 36 35 35 37 42
7 6 7 5 5 5 5 5 5 3 5 8 11 11 13 12 13 14 16 19 24 24 26 29 30 33 34 31 37 40 40 48
5 6 6 5 5 5 6 8 8 8 9 12 15 15 15 16 16 19 22 23 24 27 28 30 30 29 36 39 41 41 41 43
7 7 9 8 9 9 9 11 8 9 11 12 13 16 20 23 23 22 21 25 29 32 29 26 29 38 40 40 40 42 38 48
11 13 13 13 11 11 12 13 10 11 13 13 15 15 13 15 17 22 23 26 29 26 24 29 33 36 39 43 43 47 50 52

GFSFLT2_500_spd_060.txt.gz
Wind_Speed
38 24 21 25 31 32 27 41 47 39 35 32 26 25 25 25 27 27 27 27 26 21 21 23 20 16 16 14 10 8 5 5
25 20 16 16 24 27 27 26 35 37 36 27 25 24 26 26 27 27 26 27 25 21 21 21 19 13 14 13 11 9 6 8
19 19 20 14 20 21 24 20 24 28 27 28 26 20 26 27 24 31 35 33 27 30 23 20 19 13 14 10 9 9 8 8
22 20 26 22 15 17 7 10 19 26 28 29 25 27 25 20 30 33 40 33 27 30 21 19 17 13 12 9 11 10 9 8
23 21 23 23 20 15 8 8 23 11 24 19 32 29 32 33 32 32 40 33 30 28 21 19 15 15 12 13 12 10 10 11
23 23 19 18 15 17 12 14 15 16 15 17 26 30 28 33 27 24 34 31 30 25 21 18 16 14 16 14 13 12 11 12
23 26 21 22 22 19 16 19 18 16 21 18 19 24 27 23 19 26 30 30 26 27 27 23 16 15 19 15 14 12 12 12
24 28 27 25 27 24 31 23 19 25 22 24 23 27 23 22 18 24 29 28 25 24 19 15 15 16 17 13 12 14 14 14
22 27 30 31 28 27 23 22 26 26 26 28 26 22 22 18 15 22 24 28 25 20 18 17 17 18 16 15 14 16 18 17
19 24 30 33 29 26 23 24 23 23 20 17 19 23 21 14 18 22 28 26 19 19 17 18 19 18 15 15 16 18 19 19
3 16 23 28 30 25 26 23 19 20 20 16 21 22 20 16 20 28 24 16 15 14 15 18 17 14 15 17 20 22 23 22
16 15 10 17 19 23 24 20 21 23 24 22 23 26 23 26 28 24 19 15 14 17 18 17 16 15 17 21 24 24 27 29
12 18 16 18 10 7 13 19 24 25 26 28 25 24 30 32 24 16 17 18 17 18 19 18 17 18 21 24 23 26 27 31
12 12 13 11 14 14 16 14 14 14 17 21 24 23 20 18 18 19 19 20 19 18 16 18 20 21 24 27 27 26 27 30
10 11 11 13 12 11 11 12 12 10 8 10 13 14 15 17 17 19 19 19 18 17 18 19 22 24 27 28 28 28 30 30
6 7 7 9 11 12 12 12 9 8 10 12 13 16 20 19 19 19 19 18 18 18 20 21 24 27 27 29 30 31 29 29
0 2 3 4 6 6 6 5 6 5 5 8 12 15 19 17 18 17 20 21 21 20 22 25 27 28 32 33 34 33 31 35
3 2 3 4 2 3 4 3 1 4 5 9 12 13 14 17 19 21 23 23 23 22 23 26 29 32 34 35 36 31 38 36
5 5 7 7 7 7 7 7 5 6 9 11 13 16 17 20 22 24 26 27 25 25 23 27 28 28 28 34 35 38 36 38
8 8 10 11 10 12 12 12 8 9 11 17 17 21 19 19 23 26 34 23 23 27 24 23 26 28 33 34 37 37 37 38

GFSFLT2_500_spd_063.txt.gz
Wind_Speed
37 42 34 34 26 29 31 31 35 40 43 39 37 33 29 23 20 22 23 24 24 24 21 22 24 25 26 20 15 13 11 9
43 31 29 38 28 20 26 31 34 50 44 41 35 33 30 24 25 25 25 24 24 23 24 24 23 27 23 16 16 12 12 12
15 12 24 20 17 21 18 24 29 40 39 40 41 36 24 23 25 25 19 23 26 28 27 25 24 24 18 15 14 14 15 14
8 12 15 19 21 18 17 23 18 27 36 35 33 23 22 24 21 15 21 25 30 33 32 26 26 22 20 16 16 17 16 14
17 17 17 23 25 20 8 14 14 21 26 26 25 21 24 25 28 26 24 28 24 30 29 29 28 21 21 17 16 17 15 14
18 20 19 20 23 15 11 11 6 15 17 21 19 16 23 33 24 24 28 26 18 28 34 30 23 21 21 19 20 18 16 15
21 22 23 19 17 13 13 11 10 12 15 15 18 20 20 22 23 22 23 20 18 23 30 31 24 22 21 23 22 18 15 17
20 21 19 20 21 17 17 19 18 17 16 14 18 20 18 14 18 24 22 17 22 26 30 28 27 22 23 22 19 16 16 17
18 20 31 29 23 20 24 18 23 22 22 30 21 20 22 20 22 24 24 22 26 26 28 25 26 23 23 23 19 16 18 19
14 21 24 29 26 29 25 30 23 25 21 27 25 23 22 21 23 24 22 26 28 27 27 26 24 23 24 21 17 17 19 21
8 20 25 33 34 29 30 27 29 25 27 26 22 20 21 23 25 26 22 25 28 30 25 25 24 22 22 20 17 17 21 23
8 10 21 25 27 34 33 30 27 24 28 29 23 20 22 25 26 26 24 29 28 26 22 24 20 21 22 21 20 21 22 26
7 5 10 19 23 24 31 34 29 26 28 27 24 21 24 30 29 22 28 26 21 19 19 19 20 20 21 21 20 23 25 28
4 8 10 12 11 7 17 26 29 29 28 28 29 29 28 30 25 28 26 23 23 20 21 21 21 19 20 21 23 26 28 29
4 6 8 7 9 11 14 13 7 12 15 16 15 15 19 24 27 22 21 23 24 23 22 22 21 21 23 25 26 27 27 30
3 5 7 7 8 8 8 7 10 14 14 15 16 17 19 23 24 23 24 24 25 24 22 23 23 24 25 27 29 31 31 30
4 4 5 6 7 10 10 10 10 11 12 12 13 15 19 21 23 21 21 24 25 24 23 24 25 29 31 33 33 33 36 36
5 5 5 5 7 7 8 8 9 11 13 14 14 15 16 21 23 20 24 26 25 26 26 27 29 30 30 33 36 36 32 30
5 5 4 4 5 6 6 8 7 7 9 11 13 16 19 22 23 24 27 28 26 28 30 33 34 32 34 33 32 33 34 41
10 8 6 4 5 9 10 9 10 7 8 12 14 16 21 22 24 26 27 28 28 32 33 35 42 29 30 29 33 35 36 37

GFSFLT2_500_spd_069.txt.gz
Wind_Speed
24 26 27 29 27 27 23 24 18 26 24 34 35 34 32 28 26 22 19 17 15 17 18 17 20 20 17 20 20 19 20 20
27 27 30 28 24 28 28 28 28 24 26 28 32 35 34 31 26 23 20 17 19 17 18 19 20 19 18 21 20 21 21 25
18 26 30 39 24 29 35 29 34 36 21 20 36 41 32 32 27 25 23 21 20 21 19 16 18 19 19 24 22 20 20 14
19 20 16 21 36 34 39 40 40 39 24 27 25 30 42 34 30 27 24 24 23 23 19 16 17 20 23 24 24 20 17 18
15 9 4 13 22 33 35 35 33 23 24 29 31 31 39 32 33 25 25 26 20 20 20 18 20 20 24 23 23 21 21 21
11 7 4 13 13 30 16 19 23 23 25 27 33 37 44 41 34 30 30 26 23 24 24 24 23 21 20 24 21 23 22 23
8 10 11 12 12 17 17 13 15 24 20 17 25 31 41 33 29 35 34 29 24 21 23 19 21 19 20 21 24 24 25 24
11 11 13 14 12 12 15 16 15 20 21 17 19 31 29 28 31 32 32 31 27 22 22 23 20 19 19 23 25 28 24 25
11 9 12 16 19 13 12 17 16 25 23 23 23 25 24 24 27 30 30 28 29 28 22 22 21 22 18 22 23 24 25 24
12 12 11 16 12 19 16 17 22 18 16 22 27 28 28 21 24 24 23 23 26 24 19 22 22 22 22 25 28 25 26 25
11 11 12 14 18 20 20 22 22 19 26 21 26 25 21 21 23 24 24 25 27 27 24 24 23 22 23 28 28 26 25 24
14 13 7 24 20 23 24 19 22 16 20 18 26 28 21 21 26 24 26 29 31 30 25 27 25 25 27 32 24 21 24 25
14 13 9 15 28 31 28 28 32 25 23 22 17 23 25 26 24 27 30 33 32 31 27 28 27 27 30 32 25 26 28 27
11 11 9 7 11 22 23 27 30 28 28 26 23 24 26 25 27 30 34 32 32 30 31 29 30 28 29 27 28 27 30 29
9 9 6 3 2 4 19 30 35 35 29 26 31 30 26 27 32 35 31 32 34 32 26 23 29 23 28 29 26 27 31 29
9 6 6 5 2 2 2 5 20 26 31 30 27 28 30 30 32 30 29 34 29 22 25 30 28 24 25 26 26 29 31 30
7 6 6 6 5 3 1 3 3 8 12 29 32 32 29 31 32 32 27 29 25 27 26 30 26 24 26 29 29 29 29 32
5 6 5 7 8 5 3 2 1 4 7 11 13 15 16 18 21 21 25 23 24 26 28 27 29 28 30 29 31 31 33 37
10 8 7 6 7 7 7 7 7 7 9 9 10 13 14 14 15 20 22 24 25 28 31 31 33 32 30 30 32 34 34 37
13 13 10 10 9 8 8 9 8 10 10 10 12 12 12 14 16 21 25 27 29 30 30 30 30 28 29 35 34 38 41 37

GFSFLT2_500_spd_072.txt.gz
Wind_Speed
24 22 21 19 17 27 22 24 23 23 23 17 30 44 45 41 29 30 26 25 20 17 15 16 18 16 15 15 17 18 19 17
28 22 22 24 25 25 28 27 25 22 16 14 22 43 42 35 32 25 29 23 21 20 14 16 16 15 19 19 18 20 20 20
16 20 26 26 28 30 31 30 27 24 23 20 25 34 41 36 32 31 31 27 23 20 17 18 16 19 20 20 18 22 21 21
18 13 18 26 37 38 29 25 26 28 25 32 34 36 37 37 37 34 32 28 25 18 20 19 20 16 18 19 23 23 25 22
15 13 18 12 24 40 40 41 41 39 34 28 34 43 34 41 38 34 32 28 23 21 24 23 23 19 18 20 23 23 25 20
15 15 11 5 12 19 37 44 42 30 36 36 31 34 38 41 42 38 34 30 25 25 26 25 22 21 24 22 24 24 26 21
16 19 15 4 2 12 30 23 29 38 34 37 31 32 35 32 48 42 36 30 28 27 29 26 23 20 21 23 22 22 21 24
10 14 9 11 6 7 18 19 27 30 29 25 24 30 34 32 50 38 36 33 32 30 30 26 21 24 23 22 20 22 24 24
8 5 10 10 8 7 10 15 19 17 27 26 24 28 32 44 47 42 35 32 36 35 32 27 24 24 24 23 20 22 26 26
12 10 8 13 14 16 15 16 17 17 30 29 23 20 28 37 42 35 32 32 33 33 33 32 27 25 24 24 23 26 29 31
11 13 10 12 17 18 20 19 16 19 18 23 24 21 22 23 28 28 29 30 30 32 33 28 25 26 26 26 25 28 29 29
9 11 14 9 16 20 24 20 15 21 21 17 23 25 27 22 23 22 23 26 27 27 27 31 31 29 27 28 27 30 31 30
10 11 12 8 18 23 24 17 18 18 16 20 15 22 24 21 19 19 22 24 25 27 31 34 33 32 30 29 28 30 32 33
8 10 10 6 15 20 23 25 23 23 23 24 22 21 19 26 27 24 23 27 25 31 33 34 33 29 28 28 29 32 30 26
7 9 9 6 0 11 21 28 25 25 30 28 25 26 27 23 27 28 29 31 32 34 35 34 33 29 31 27 29 32 32 34
7 7 7 7 4 2 4 6 23 31 32 33 31 30 28 27 34 31 27 32 36 33 36 35 29 25 31 31 31 30 34 29
8 8 8 8 8 7 4 4 4 15 32 33 35 37 31 29 32 30 31 32 31 31 33 30 26 24 24 28 30 31 34 27
9 7 8 9 9 8 6 6 4 4 5 17 38 41 37 32 33 33 34 33 32 26 24 24 25 25 28 28 25 24 25 27
10 10 9 8 7 6 8 9 7 8 8 7 6 12 21 19 27 30 31 29 25 25 24 26 28 27 30 31 29 26 30 34
12 11 10 11 12 10 9 8 8 10 9 8 8 8 11 11 13 16 20 23 24 24 24 29 26 27 30 33 34 32 35 36

GFSFLT2_500_spd_075.txt.gz
Wind_Speed
27 19 20 19 12 12 23 28 30 24 24 22 25 23 27 30 37 36 40 38 30 26 22 21 19 18 17 16 15 15 17 18
20 20 20 21 19 19 24 31 29 26 22 22 25 22 34 43 43 44 42 35 27 25 23 23 19 17 18 18 18 17 18 19
18 18 12 20 23 23 18 26 25 27 24 24 22 21 27 37 53 47 36 31 29 26 24 23 20 18 17 19 18 20 18 22
17 14 12 12 16 26 24 31 32 30 33 27 25 24 24 46 47 41 34 30 31 29 25 23 22 19 17 17 17 22 21 18
16 13 14 14 21 22 30 36 32 35 36 32 29 23 24 34 42 40 32 32 31 29 25 25 24 22 18 18 18 21 23 23
19 16 12 6 10 22 38 40 41 35 30 29 27 25 32 31 43 38 35 34 32 30 28 26 25 22 21 19 24 22 22 24
15 15 14 9 8 9 18 42 48 40 41 44 39 37 36 36 42 36 39 36 35 32 28 27 25 22 22 23 23 24 23 25
14 14 15 7 8 5 10 20 39 43 36 38 45 41 39 38 42 41 44 40 37 34 32 27 25 26 24 26 25 25 25 23
12 13 14 12 11 5 7 19 24 28 39 39 43 40 35 36 39 41 42 44 43 34 32 30 28 29 26 27 26 26 26 24
11 13 12 13 10 8 6 11 14 22 25 35 31 28 32 31 35 39 42 48 45 36 34 34 32 30 31 30 28 27 27 26
14 13 13 13 12 14 16 12 14 12 20 29 35 31 32 36 38 41 42 53 37 31 30 33 30 29 36 32 30 29 28 29
15 14 12 13 12 16 18 18 15 14 16 24 30 30 30 30 33 41 39 47 33 29 32 33 31 35 37 32 31 30 31 30
14 15 13 11 10 12 14 20 21 14 10 19 22 20 21 20 16 18 30 32 29 30 30 29 29 31 32 35 35 33 30 28
14 14 13 10 10 15 18 20 16 18 14 17 12 15 17 18 16 18 21 22 24 26 25 26 29 31 34 34 32 30 27 30
13 14 11 8 9 8 20 18 25 25 21 23 21 18 17 18 16 17 24 27 23 24 27 26 28 31 31 28 18 14 19 23
12 13 13 8 6 6 7 10 19 28 29 28 29 27 24 22 24 23 23 27 25 26 28 31 29 27 28 22 25 23 22 20
11 11 11 10 9 9 10 11 10 11 18 27 28 28 28 28 27 26 24 29 28 28 28 31 30 28 27 25 25 21 27 32
10 11 10 10 11 10 11 11 11 9 8 9 25 36 34 35 31 30 26 25 29 32 30 28 28 22 26 26 25 25 23 25
7 9 8 8 8 7 8 10 11 10 11 10 9 9 20 33 37 33 29 31 30 34 30 31 29 23 24 23 24 23 25 23
8 8 8 8 8 10 9 9 9 9 12 11 12 7 5 7 7 18 23 29 26 22 24 21 21 24 21 25 25 25 28 30

GFSFLT2_500_spd_078.txt.gz
Wind_Speed
26 28 24 22 22 26 19 18 42 37 31 21 20 18 26 23 25 27 32 35 33 36 28 27 24 22 21 20 18 17 17 15
26 21 22 25 23 23 18 29 43 43 35 29 24 24 18 21 25 26 32 37 36 32 30 27 25 22 22 21 19 18 18 16
24 19 19 16 21 22 20 22 19 41 34 28 24 23 22 28 29 29 36 42 41 38 30 29 25 22 25 19 19 21 18 16
22 18 16 13 14 19 19 19 21 28 34 29 23 23 24 26 27 39 43 44 45 33 33 27 25 22 24 20 20 17 17 16
19 18 16 17 19 22 20 23 28 20 27 31 20 25 23 26 27 31 40 46 40 34 32 28 26 23 24 21 21 15 16 17
19 19 15 16 15 14 19 24 34 32 26 26 26 34 23 25 29 25 38 41 40 36 31 29 26 25 25 23 23 17 18 20
17 15 13 17 12 15 15 22 31 37 34 33 34 38 25 25 25 22 32 40 36 31 30 30 27 27 26 24 25 22 22 20
16 15 15 13 14 15 12 16 25 39 29 29 32 25 28 28 29 31 35 40 34 32 32 30 29 29 27 26 25 22 24 23
17 13 14 14 13 18 11 14 16 33 41 38 37 30 36 35 33 34 39 42 35 36 34 33 31 31 28 26 28 26 23 24
18 15 14 15 16 14 10 11 10 17 29 38 42 36 40 32 28 35 33 42 37 38 39 37 34 32 29 28 28 28 27 28
17 18 16 17 17 13 15 13 7 12 22 31 34 31 35 34 32 36 29 40 39 42 43 42 36 34 30 31 31 30 29 30
16 17 19 17 18 14 10 13 13 13 13 19 23 26 24 29 31 41 35 34 40 37 35 47 41 29 30 28 31 30 29 31
16 15 19 20 16 12 11 13 15 9 11 13 15 19 27 29 30 36 39 41 36 39 37 46 32 25 25 27 28 31 31 33
12 12 14 17 17 13 9 9 14 12 16 7 8 17 18 21 24 26 29 37 36 31 29 32 22 21 24 25 28 30 33 32
11 11 12 14 15 12 7 11 13 14 16 13 13 17 15 16 17 13 11 12 12 13 16 22 21 24 25 25 27 26 26 21
9 9 11 12 12 10 6 4 6 11 17 27 25 23 22 17 16 15 14 10 12 20 21 21 22 27 27 27 23 21 23 20
8 6 8 11 11 10 9 8 6 7 10 13 19 24 25 24 19 19 17 18 15 20 24 23 22 25 27 27 25 20 19 19
7 4 5 7 9 9 10 10 11 10 9 8 6 17 23 21 21 22 24 20 19 21 22 30 27 26 26 25 25 26 25 24
7 4 5 4 7 7 6 8 8 9 9 7 4 5 6 17 30 31 30 28 27 24 26 26 29 29 27 29 30 26 25 24
10 6 4 4 5 6 7 7 9 9 9 7 6 6 5 4 4 12 28 35 33 30 29 29 29 27 28 28 28 25 24 23

GFSFLT2_500_spd_081.txt.gz
Wind_Speed
16 22 22 22 21 23 25 28 25 29 43 40 31 30 27 30 37 42 39 37 30 31 30 31 27 27 25 19 18 19 20 20
19 18 21 20 21 24 25 29 27 33 43 43 34 31 31 37 30 43 34 32 33 32 34 34 30 26 22 21 20 20 22 21
17 17 18 16 21 17 23 21 25 30 34 46 36 32 33 26 32 36 22 23 29 34 36 39 34 26 29 23 16 25 23 19
16 16 15 16 17 19 16 19 18 25 43 50 32 29 31 26 23 25 21 28 31 35 41 40 35 28 27 20 17 25 20 17
15 15 14 15 16 19 19 18 19 27 36 41 28 27 29 28 29 27 25 28 31 37 43 39 35 30 29 20 19 25 18 17
14 14 14 15 12 15 13 11 17 17 38 36 31 26 23 23 18 22 23 28 37 41 41 40 33 31 29 19 21 23 18 17
13 14 14 15 11 11 12 17 18 23 25 33 33 26 26 21 16 20 22 25 33 39 38 41 33 32 30 20 23 23 23 19
12 12 13 14 15 12 17 14 13 25 32 34 33 34 27 30 22 22 17 19 21 34 35 38 36 36 30 23 23 24 22 20
13 12 12 14 17 16 11 7 12 16 30 38 36 30 27 31 31 26 21 24 20 29 33 35 38 36 30 24 23 25 23 22
14 13 13 14 16 20 17 11 9 13 20 30 29 34 30 25 23 25 25 25 21 27 38 35 35 35 31 30 24 25 25 24
14 15 14 13 16 15 15 10 7 7 8 31 33 27 26 28 26 31 31 25 24 22 41 39 34 34 34 31 27 26 26 26
12 16 16 13 14 14 13 6 7 3 3 12 22 25 26 31 31 32 36 31 25 23 34 39 40 37 37 33 31 27 28 27
15 13 14 12 13 12 11 6 6 2 1 2 5 15 20 27 27 27 27 24 25 27 30 36 40 36 38 39 25 33 26 26
14 9 11 12 11 11 8 3 6 7 5 4 2 5 8 9 15 20 22 24 28 33 33 36 33 38 30 34 26 24 26 22
11 9 8 8 11 10 8 2 5 6 7 8 11 10 7 8 10 15 19 19 22 35 38 36 27 25 20 24 24 22 23 21
11 8 7 6 7 9 7 3 2 1 5 12 16 16 13 14 14 15 15 14 9 9 11 12 14 17 20 25 23 21 21 20
13 7 7 7 6 6 6 5 2 2 3 6 9 17 23 19 19 16 16 16 15 14 14 16 18 19 20 24 24 24 23 23
12 7 5 6 5 5 4 5 4 4 4 6 7 8 14 17 20 22 22 22 17 17 16 17 19 20 21 24 23 25 24 25
14 10 7 7 4 2 3 4 5 5 4 5 5 2 3 8 19 26 26 23 23 22 22 21 22 23 23 23 25 25 27 28
15 13 10 8 6 4 3 4 5 5 5 5 3 4 5 6 6 8 16 24 29 26 30 26 26 26 23 25 27 26 29 30

GFSFLT2_500_spd_084.txt.gz
Wind_Speed
19 22 20 18 19 23 24 28 28 35 34 34 43 34 38 35 37 37 36 39 36 40 36 33 32 27 25 27 27 23 21 18
22 19 17 17 18 18 24 28 29 29 29 32 31 35 29 34 33 37 38 41 39 37 36 38 33 25 25 26 27 22 20 19
18 15 14 14 16 16 17 21 25 26 28 33 32 41 40 30 27 34 33 41 40 31 29 28 31 26 27 28 24 23 22 20
14 13 12 13 16 17 23 18 20 25 26 30 40 49 32 36 24 35 34 36 35 34 32 30 31 30 30 31 25 22 20 19
12 11 11 12 15 17 20 16 16 19 21 22 28 47 37 34 29 19 24 28 24 28 27 31 31 33 33 30 27 21 21 17
12 11 13 13 16 13 11 10 11 13 14 35 41 34 39 31 29 25 22 25 26 28 30 33 32 34 35 31 24 22 21 18
14 12 13 13 15 15 13 14 13 13 9 27 41 38 35 25 26 27 29 26 25 25 31 34 33 32 34 27 26 24 21 21
15 14 13 13 13 17 16 18 10 9 13 33 38 34 30 24 24 20 28 23 20 24 29 34 36 36 35 29 28 25 22 23
17 13 14 13 12 14 15 13 5 4 18 22 32 35 24 27 25 17 20 20 17 18 22 27 37 36 37 32 30 26 24 24
16 13 12 14 13 12 14 10 9 4 15 23 32 36 33 31 27 26 23 24 20 20 17 22 36 35 35 30 33 30 26 25
16 16 12 14 14 11 11 8 8 6 10 25 34 39 38 39 29 32 24 27 24 18 19 19 28 32 37 33 38 34 28 27
16 19 17 14 13 10 11 6 6 6 3 11 31 42 40 41 33 27 24 25 26 26 20 20 27 31 37 34 38 37 32 31
17 18 19 13 12 10 10 6 7 5 1 4 20 35 31 27 27 29 32 27 29 34 27 23 21 41 44 34 36 38 35 31
17 17 14 13 8 7 8 4 8 7 9 7 9 22 25 24 25 30 31 30 26 27 25 25 23 27 34 39 40 32 40 32
17 16 11 12 7 5 5 3 6 11 12 12 11 11 11 10 11 16 18 19 22 22 21 24 29 30 32 29 31 33 28 27
17 17 12 10 9 5 3 1 1 4 7 8 10 11 14 14 15 12 12 15 21 16 15 22 29 28 31 23 22 28 26 26
16 17 13 11 10 5 3 4 4 3 4 5 8 12 17 20 16 14 13 18 13 9 9 9 11 16 23 22 26 26 24 25
14 18 15 12 10 6 4 5 5 5 4 5 5 8 12 17 21 19 18 17 13 15 16 18 19 19 21 21 23 23 25 26
13 18 17 13 11 7 4 3 2 2 3 4 5 5 5 7 14 19 22 22 21 21 19 22 24 25 25 23 21 21 25 25
16 19 20 15 12 10 8 6 5 3 3 3 2 3 5 6 6 7 14 24 27 28 28 26 28 28 27 26 25 24 26 26

GFSFLT2_500_spd_087.txt.gz
Wind_Speed
22 23 22 24 25 24 27 27 28 29 30 30 35 36 38 35 37 39 32 31 31 28 31 33 25 28 29 22 21 22 24 21
22 22 22 21 22 24 25 24 26 31 31 33 34 33 35 34 34 28 30 32 36 33 36 31 33 29 28 24 24 24 25 24
20 20 17 17 20 22 22 24 27 28 29 28 29 26 31 32 34 31 30 31 35 36 33 34 36 30 30 26 21 23 26 20
19 16 17 14 17 18 20 25 29 27 30 29 26 25 26 31 34 31 31 31 36 34 34 28 32 40 27 24 23 26 24 19
18 16 15 15 16 16 19 22 25 20 28 27 26 27 31 34 36 33 32 26 29 31 33 23 25 29 28 27 28 29 27 19
19 16 16 17 18 19 18 18 22 20 18 21 23 25 38 40 38 33 34 32 28 28 28 27 29 31 32 32 33 31 26 17
21 17 18 19 19 19 20 20 24 24 23 18 24 32 41 38 41 41 21 30 29 26 24 25 29 31 33 34 34 30 27 15
22 20 19 18 17 18 20 21 25 23 11 12 24 37 40 47 38 36 28 23 28 25 28 29 29 31 33 35 34 36 23 22
19 21 21 18 17 19 19 19 22 16 14 16 25 43 43 37 27 25 28 30 27 24 23 25 29 31 32 35 32 34 26 24
19 19 18 17 18 19 19 18 17 13 11 13 30 39 37 27 24 27 22 26 24 20 20 14 25 31 43 33 32 36 30 27
19 18 18 18 18 21 19 17 13 11 10 15 30 37 37 32 31 31 22 25 24 20 19 19 22 22 25 37 34 36 37 33
19 18 17 19 18 18 19 15 11 10 9 13 18 37 41 36 34 31 25 28 26 26 25 22 22 21 26 36 33 40 38 35
18 19 15 19 16 14 16 15 10 11 9 13 21 32 43 39 37 37 29 31 25 27 30 30 23 25 23 27 30 38 39 41
17 20 13 15 15 13 11 13 10 10 10 10 18 28 43 46 41 41 33 31 31 31 31 32 30 28 23 26 31 38 42 44
18 20 14 12 16 11 11 9 9 10 12 7 7 22 29 35 33 31 28 29 32 34 35 31 32 30 23 24 29 35 50 43
17 19 15 12 15 12 10 9 4 7 11 9 9 11 22 31 25 26 25 25 30 29 29 26 26 29 29 27 28 33 38 38
16 17 16 13 14 12 10 10 7 7 8 13 14 13 14 18 19 25 27 28 23 25 30 30 30 29 30 33 33 31 32 31
15 16 17 14 14 13 9 10 10 8 7 8 8 9 12 17 23 24 22 21 20 19 21 22 20 18 17 19 27 28 29 27
15 16 19 16 15 13 10 10 10 10 10 10 10 10 11 11 19 25 25 23 22 21 20 21 20 20 21 22 23 24 27 28
18 17 20 18 17 14 11 11 10 10 9 9 9 10 10 8 6 9 16 20 24 24 24 23 21 22 24 25 27 28 25 24

GFSFLT2_500_spd_090.txt.gz
Wind_Speed
24 22 20 21 24 26 26 26 26 27 26 25 25 26 33 33 41 38 29 32 40 27 29 31 30 28 22 23 20 18 15 19
24 23 19 20 23 24 25 26 26 25 27 26 30 29 34 36 29 29 31 30 36 22 30 29 31 30 30 21 22 18 20 19
23 22 18 19 23 23 24 22 24 25 27 30 32 30 33 34 32 28 24 23 27 29 27 29 29 32 24 26 29 22 22 20
21 20 16 17 20 20 20 21 22 25 28 31 31 30 27 31 30 26 27 28 25 31 30 33 32 30 26 30 26 23 24 21
23 19 16 16 19 20 19 20 22 21 25 24 24 30 28 28 25 25 29 31 32 22 33 34 26 29 33 30 33 16 21 23
25 21 17 19 19 23 22 22 22 24 25 32 30 27 28 32 29 37 34 41 32 20 29 32 27 18 27 31 24 22 25 27
26 25 18 21 19 23 22 24 24 25 26 35 24 24 26 33 34 40 42 40 29 25 28 30 31 25 23 25 25 27 30 30
25 28 21 20 19 21 23 25 26 27 29 30 18 20 26 35 41 44 42 42 33 33 26 30 30 27 27 26 28 31 31 26
23 28 24 19 18 20 23 25 27 29 30 29 18 19 26 33 44 41 42 35 20 27 28 28 30 30 27 26 29 32 31 30
25 27 25 19 18 20 23 26 27 29 26 27 15 18 29 41 43 43 40 36 22 29 27 29 28 31 29 33 37 36 36 30
26 25 26 19 19 21 23 26 26 27 22 21 18 19 39 41 48 36 37 32 32 29 26 27 29 27 28 35 40 37 39 35
26 24 25 19 18 18 22 23 24 24 18 14 11 26 39 44 35 27 29 31 30 30 28 29 23 23 23 31 32 30 37 34
25 23 23 20 17 14 18 22 23 19 13 12 9 33 34 35 28 30 27 22 27 29 26 25 26 23 22 27 27 29 34 34
25 24 22 20 18 12 14 19 22 16 12 12 9 25 33 36 34 32 31 27 24 26 25 25 29 31 30 28 28 27 30 38
27 24 18 20 20 12 12 15 18 11 10 9 9 14 30 35 35 35 36 32 29 25 30 30 31 32 31 30 29 26 29 34
29 26 17 17 20 12 10 14 15 9 11 14 11 10 24 35 38 35 35 30 34 33 33 34 34 34 34 32 33 29 29 30
31 29 18 15 18 12 9 11 14 9 7 11 12 10 11 29 31 33 29 30 32 30 28 33 36 32 29 30 31 31 31 30
31 30 19 16 17 13 10 9 12 13 9 7 8 12 13 14 21 24 24 26 30 32 31 30 32 33 32 31 31 28 26 33
32 30 21 17 17 15 12 10 10 12 12 11 9 10 11 14 19 22 23 25 29 29 26 24 26 29 29 25 22 23 25 27
33 30 23 19 18 16 16 11 10 11 12 11 13 14 13 13 13 17 27 30 32 29 26 23 20 23 25 24 24 24 24 24

GFSFLT2_500_spd_093.txt.gz
Wind_Speed
22 24 26 27 20 19 21 22 22 21 22 23 23 21 23 32 29 23 30 27 29 25 32 34 32 32 28 24 20 19 19 20
20 23 25 26 21 19 21 21 21 21 21 22 22 21 22 30 25 25 28 31 36 28 29 35 34 33 28 27 21 22 21 20
20 22 22 23 22 20 21 20 19 19 20 21 21 24 27 29 30 30 22 24 23 24 30 31 33 34 29 27 23 24 22 22
20 21 22 21 23 21 20 19 19 18 19 21 18 22 24 30 31 30 27 24 22 27 30 32 30 26 30 29 29 28 28 20
20 20 21 21 21 22 22 20 20 20 20 18 21 23 29 29 27 24 27 25 27 29 33 30 29 23 30 33 27 30 32 27
21 19 21 21 21 22 24 22 20 21 21 23 23 27 30 27 27 25 25 26 30 35 29 28 29 30 26 32 31 33 31 28
22 19 19 23 22 22 24 23 21 22 23 24 25 30 30 29 29 28 28 34 30 35 29 29 30 26 24 17 34 36 26 22
25 20 20 23 22 22 22 24 21 24 25 26 28 30 30 27 26 33 32 41 32 41 27 28 28 28 27 20 17 27 26 26
27 23 22 23 23 22 22 24 23 27 27 27 31 23 24 24 27 35 39 41 36 41 29 26 28 30 34 25 25 29 30 29
26 24 23 24 25 21 22 24 25 27 28 29 29 25 21 27 26 34 39 44 39 38 30 31 28 32 28 28 29 29 28 30
27 25 23 26 26 21 21 24 25 25 27 28 27 27 25 26 30 33 43 45 38 34 32 29 28 29 29 28 28 28 29 31
27 26 24 25 28 21 19 22 22 24 25 25 20 25 16 25 32 35 45 42 36 27 24 32 32 32 30 28 28 31 32 36
27 26 26 26 27 23 18 22 20 23 24 20 18 19 19 22 35 43 44 40 38 32 31 29 29 29 26 25 25 26 28 31
29 28 27 27 28 23 18 21 19 20 21 15 15 16 22 26 38 42 41 35 33 30 33 29 30 29 26 26 21 20 26 28
30 30 28 27 28 23 16 19 17 18 16 12 11 4 20 26 32 40 33 33 34 30 31 35 29 27 30 31 30 28 32 30
31 31 31 29 27 24 15 16 16 14 11 10 12 6 8 29 31 30 31 33 31 30 30 31 34 30 29 31 35 35 36 34
33 32 31 31 27 25 15 15 15 12 9 7 10 10 10 15 23 34 28 28 27 34 28 32 30 34 34 33 36 36 35 32
35 35 34 34 28 25 16 15 13 14 10 9 8 11 11 7 19 24 31 28 26 27 36 31 28 29 32 33 32 31 32 33
37 39 35 37 29 28 18 17 12 13 12 11 10 8 10 12 11 13 17 23 22 24 26 26 26 27 28 30 31 33 34 34
38 40 38 38 31 30 22 18 12 13 13 12 11 11 11 11 12 12 16 20 22 26 25 24 23 21 21 21 22 23 23 23

GFSFLT2_500_spd_096.txt.gz
Wind_Speed
18 18 19 20 22 21 18 14 20 20 19 20 20 21 20 19 20 22 24 28 28 31 23 22 30 32 30 30 26 23 22 22
16 18 18 19 21 19 18 15 16 17 17 18 19 20 18 18 19 29 28 24 30 26 31 22 29 32 32 32 28 25 23 22
16 18 19 18 18 18 18 17 15 16 17 17 17 19 20 21 27 26 24 25 22 27 20 24 26 35 35 31 31 28 26 25
18 18 19 19 18 18 20 18 18 15 17 18 19 17 19 20 21 24 28 26 24 22 17 29 30 34 32 32 31 30 28 26
21 18 21 21 17 16 19 20 21 17 17 19 20 20 21 23 24 25 25 30 28 25 19 35 30 29 34 35 32 30 31 30
24 21 22 21 19 18 18 21 22 21 18 19 21 22 24 22 24 24 25 26 29 30 26 33 30 31 37 35 34 35 34 35
28 23 23 25 23 20 19 22 23 23 20 20 22 24 26 25 25 24 25 28 30 31 28 35 30 32 27 33 37 37 34 33
29 27 24 26 25 21 21 22 23 24 23 23 24 26 26 30 23 24 28 32 31 32 32 35 27 35 35 30 35 38 32 33
30 30 24 26 26 22 21 23 23 25 25 26 26 28 27 25 26 23 31 31 34 34 35 41 27 35 34 28 26 25 30 32
33 32 25 26 26 24 21 24 23 26 27 27 26 27 27 22 24 25 28 31 36 38 38 46 31 33 30 30 27 25 22 25
33 35 26 26 25 25 23 25 23 24 24 25 25 27 26 21 27 30 25 29 35 33 34 43 29 29 30 34 33 29 24 25
35 35 27 28 25 24 25 26 24 23 24 26 24 26 25 30 26 30 30 30 35 37 39 40 31 28 28 32 30 31 24 24
36 36 32 28 26 24 27 27 25 23 23 25 24 24 23 27 24 31 34 33 34 40 40 40 34 30 30 28 29 26 25 27
37 37 33 29 26 24 28 27 26 22 22 22 23 22 23 21 23 28 32 35 39 44 40 33 25 27 28 27 25 24 24 25
37 37 35 30 26 23 28 27 26 20 20 20 20 17 20 18 18 24 31 35 36 36 37 28 27 27 28 27 25 22 26 25
40 36 34 30 24 23 27 27 26 20 18 16 17 13 14 5 17 32 30 35 40 38 34 31 32 28 28 27 30 30 32 31
42 37 35 31 25 23 26 29 27 21 16 15 16 11 9 10 12 25 34 39 38 36 34 28 29 29 26 25 28 28 33 35
43 40 36 31 27 25 25 29 27 23 15 14 15 12 11 8 9 22 27 32 33 35 34 35 33 29 33 31 32 30 33 36
43 42 38 31 27 27 25 28 27 25 17 13 15 12 10 12 8 19 21 34 24 28 29 29 33 35 30 29 27 29 30 30
42 43 38 34 27 28 26 28 27 26 18 13 14 15 11 10 8 10 10 24 22 25 26 21 25 24 20 20 22 22 23 22

GFSFLT2_500_spd_099.txt.gz
Wind_Speed
16 17 15 15 18 18 18 18 16 17 17 16 16 18 21 21 22 23 23 24 20 24 27 23 22 26 30 30 30 27 27 24
17 17 16 15 18 18 18 16 18 17 17 15 12 16 18 18 23 21 22 28 27 30 23 28 20 26 29 32 32 32 30 26
20 18 17 17 18 19 18 16 17 18 18 19 16 13 14 16 16 20 25 26 29 26 22 26 21 32 31 34 35 33 32 27
25 20 16 18 19 20 18 16 16 19 18 21 21 17 15 16 16 19 19 23 31 25 21 22 24 35 33 28 36 33 32 28
29 23 19 18 21 20 19 17 17 18 20 21 23 21 18 18 19 20 26 23 25 26 28 23 17 32 34 32 36 32 32 29
33 27 22 17 20 21 23 22 19 19 21 23 23 21 21 20 21 24 23 22 24 27 27 24 23 33 38 30 34 36 33 28
34 30 27 20 20 21 22 24 22 22 22 22 24 23 23 23 25 23 26 23 24 27 31 28 23 34 27 33 35 34 33 32
36 33 31 24 21 22 22 24 23 23 24 22 24 25 25 25 26 27 27 26 25 29 29 30 27 33 28 31 36 33 34 34
35 36 33 30 24 24 23 23 23 24 24 23 24 26 27 26 27 28 26 28 28 30 27 30 29 35 31 33 30 39 36 34
38 37 34 33 26 26 25 24 23 25 24 23 24 25 26 27 26 27 25 24 28 31 31 31 32 38 34 32 34 26 26 33
39 36 34 34 29 27 27 25 23 25 26 23 24 24 26 27 27 23 28 27 28 31 31 32 37 41 32 35 32 30 27 25
40 36 35 36 34 27 29 26 25 24 27 25 25 26 28 29 28 26 31 28 28 28 33 33 34 45 29 33 31 31 30 25
41 38 36 36 38 30 30 28 26 25 27 25 26 28 27 28 28 28 37 31 29 26 30 30 37 48 32 28 26 31 30 32
37 40 39 37 40 35 31 29 26 25 27 25 27 27 27 26 29 31 33 35 36 32 31 31 37 43 39 28 27 26 30 29
39 42 43 39 40 37 32 29 24 25 26 25 26 26 25 24 28 26 29 35 36 35 34 32 37 43 34 32 28 23 25 25
38 40 43 38 39 37 33 29 22 23 25 24 26 24 22 23 26 21 22 31 36 36 36 33 37 40 30 26 26 28 26 27
39 39 42 37 39 38 35 31 22 21 24 22 26 23 18 19 20 14 21 29 36 38 36 36 37 33 28 26 27 27 29 31
40 39 38 39 39 39 36 34 23 20 23 22 24 23 17 16 17 14 21 26 32 30 31 34 36 31 25 30 26 25 29 31
37 40 39 41 39 40 37 37 24 21 21 22 23 23 16 14 14 9 15 22 32 33 35 37 32 28 25 25 29 30 29 27
39 38 42 44 41 41 38 40 26 22 21 21 22 23 16 13 11 10 24 14 27 31 34 31 31 28 28 29 27 28 28 28

GFSFLT2_500_spd_102.txt.gz
Wind_Speed
18 17 17 18 15 14 15 14 15 15 15 16 17 15 18 15 18 21 23 21 20 20 21 19 21 26 26 28 26 27 28 27
20 19 19 20 15 14 15 15 16 15 15 15 17 15 17 16 16 18 22 19 18 22 23 24 15 22 22 26 28 31 30 26
23 22 20 21 18 14 14 15 16 17 17 17 17 16 15 16 14 16 17 18 20 23 23 20 24 19 23 28 30 32 30 28
28 24 22 21 20 17 13 15 18 18 19 19 19 17 16 18 17 16 18 20 19 20 20 20 21 21 29 33 34 28 33 30
32 29 26 23 23 19 15 15 17 20 20 21 20 21 21 18 18 18 18 20 21 22 22 21 21 19 23 35 32 27 31 29
33 33 29 27 24 23 20 17 17 19 21 23 22 21 23 21 18 20 21 22 23 25 24 22 24 21 19 35 36 29 24 32
34 34 30 30 29 26 25 20 17 18 20 22 23 23 23 23 20 21 24 23 25 24 23 22 25 20 21 31 32 31 24 30
33 33 34 32 33 27 28 25 21 20 21 20 22 24 25 25 24 22 25 25 25 28 24 23 26 23 21 36 35 33 23 35
33 35 35 35 33 32 29 28 23 22 22 21 21 24 26 25 27 26 26 27 28 26 25 25 25 23 26 31 29 24 26 33
42 32 36 37 34 34 29 29 28 23 23 22 22 22 26 25 26 27 27 28 27 23 26 26 25 27 30 32 29 27 31 28
39 35 35 37 36 37 31 26 30 27 25 24 23 22 26 26 26 28 29 28 26 26 26 28 27 29 29 36 34 29 29 26
41 39 31 35 38 38 33 30 28 29 27 26 25 23 25 29 27 28 30 29 28 25 25 28 29 30 35 41 33 30 32 27
42 39 32 34 38 38 34 35 30 29 28 29 26 24 26 29 28 28 30 26 29 30 29 28 30 33 35 40 30 31 33 30
40 39 36 34 35 39 36 37 33 30 29 29 27 25 25 27 29 28 28 26 32 33 31 29 30 34 39 36 32 26 30 26
38 36 38 33 32 39 38 38 33 31 30 30 27 25 24 26 28 29 27 31 32 38 34 31 29 32 33 33 40 22 29 28
39 36 37 37 30 39 40 38 35 31 30 30 27 25 23 25 28 26 27 30 29 36 41 34 34 34 40 36 37 35 28 29
41 39 36 40 28 39 40 38 35 32 30 30 25 23 23 25 26 25 26 29 25 32 37 40 37 34 36 36 34 30 29 26
42 43 39 39 32 39 40 37 36 33 30 30 25 22 21 24 24 25 23 28 21 28 34 37 35 37 35 38 35 29 28 29
47 49 43 39 33 42 43 35 36 35 30 31 26 21 21 21 22 23 20 23 21 28 35 34 34 37 33 33 31 30 28 25
49 50 48 38 36 43 42 37 37 37 31 32 26 19 21 20 20 20 17 13 19 25 33 37 36 37 36 37 26 22 27 28

GFSFLT2_500_spd_105.txt.gz
Wind_Speed
28 22 21 20 16 15 13 13 13 11 11 13 14 13 14 17 15 16 14 15 19 18 18 17 25 15 16 24 23 26 26 25
30 24 22 21 19 17 15 14 13 11 12 13 15 15 14 17 15 15 15 14 14 17 16 15 15 23 13 19 23 20 26 28
30 28 23 22 21 19 18 16 13 12 13 14 15 16 15 17 16 14 16 17 13 13 15 16 18 15 15 19 23 27 25 27
26 31 28 24 23 22 20 20 16 14 14 15 17 18 17 18 17 16 16 16 17 17 17 18 16 16 15 19 25 26 28 30
24 31 31 27 25 24 24 22 21 18 16 16 18 19 19 21 19 17 16 17 16 17 16 18 19 19 19 19 27 29 33 27
27 32 33 30 27 26 24 24 23 21 20 19 20 21 20 22 21 18 18 18 19 19 18 19 19 21 22 22 26 27 34 24
28 31 34 33 30 28 26 24 24 25 24 23 22 22 21 22 22 20 19 20 20 21 20 19 20 22 24 24 22 26 34 28
29 28 34 36 32 29 29 25 24 25 25 25 25 23 23 23 22 22 23 23 22 22 22 22 22 20 24 26 20 33 34 32
28 27 35 35 33 31 30 29 26 26 26 26 27 25 24 24 24 23 25 24 23 22 23 21 18 19 25 26 29 33 34 25
33 27 29 35 35 33 32 31 26 29 27 26 27 28 26 26 25 26 26 23 24 22 22 22 21 23 27 27 27 36 31 23
36 32 27 31 37 33 33 32 28 29 27 26 27 27 26 27 27 29 29 26 25 26 21 24 24 21 26 29 31 32 28 25
39 34 31 29 36 33 33 33 31 30 26 24 26 28 28 27 28 28 30 29 27 28 25 24 22 23 27 31 33 35 31 24
43 37 34 28 30 37 34 33 33 33 27 24 25 28 28 28 28 29 28 28 29 26 24 26 27 24 30 33 35 39 33 25
43 37 35 28 30 36 39 36 37 34 28 25 27 27 29 29 27 29 27 28 28 26 25 30 33 28 30 34 37 42 36 27
41 39 38 31 29 33 40 39 37 34 28 29 28 28 29 29 29 28 27 28 29 28 28 34 32 31 31 35 36 35 34 30
41 41 41 38 32 33 38 40 38 35 31 30 28 29 30 28 29 29 28 27 30 28 30 29 35 39 35 33 38 40 37 35
42 41 39 38 35 29 35 39 37 36 33 31 28 29 29 29 29 28 27 27 31 29 32 27 36 38 35 29 32 33 38 33
42 41 40 37 37 26 34 40 37 35 34 31 28 29 29 29 29 28 26 26 29 27 29 26 37 40 35 32 34 33 35 37
48 45 42 40 38 32 32 41 42 35 35 32 29 27 29 29 28 28 26 25 27 25 24 27 37 40 37 31 33 36 36 34
51 48 46 49 42 39 36 42 46 38 37 32 31 27 27 29 28 27 24 23 23 20 20 26 30 37 37 37 36 40 39 34

GFSFLT2_500_spd_108.txt.gz
Wind_Speed
25 28 29 26 23 23 19 18 18 16 14 13 13 13 14 15 13 13 15 15 15 16 16 15 12 15 18 16 16 26 27 24
24 26 30 27 24 23 21 18 19 18 15 14 13 13 14 15 16 14 13 13 12 14 16 14 12 14 14 16 15 23 23 24
25 26 29 28 25 23 23 20 19 19 17 16 15 14 13 16 17 15 14 15 14 13 13 16 16 14 11 17 14 22 23 22
27 23 26 28 27 25 23 22 21 19 19 19 19 16 15 16 18 17 15 16 15 14 13 17 19 18 18 18 15 23 26 24
28 26 25 28 30 28 25 24 22 21 20 20 20 20 19 18 20 20 16 17 16 15 13 15 17 21 20 22 17 20 25 28
31 29 26 28 30 30 28 26 23 22 20 21 20 21 22 21 21 23 19 17 17 17 18 16 17 19 20 23 22 19 25 27
31 31 28 27 29 31 29 27 25 23 22 22 22 22 22 23 23 23 21 19 20 21 20 19 20 20 19 22 26 23 29 31
31 31 29 28 29 30 29 28 27 23 24 23 24 23 23 23 25 26 25 22 21 23 24 22 22 24 21 24 27 26 26 31
31 32 31 30 31 29 29 28 26 25 25 25 25 24 23 23 25 26 27 25 21 24 25 25 23 24 17 19 24 26 21 34
38 32 30 30 33 32 30 31 26 25 25 27 26 24 23 23 24 26 27 26 23 23 25 26 26 23 20 25 24 28 26 35
40 37 31 30 32 34 31 30 28 27 26 28 27 26 25 25 25 26 27 28 25 26 26 25 27 23 26 25 26 29 33 35
40 40 36 32 32 33 35 30 30 28 29 28 26 27 26 26 27 27 28 29 28 27 26 26 26 27 26 25 27 28 29 36
42 39 39 35 34 31 35 33 33 31 28 27 26 27 28 27 27 27 29 30 30 28 26 24 24 26 26 26 27 30 31 39
45 44 40 38 36 31 33 37 35 32 31 28 26 27 30 28 29 27 29 29 31 29 27 26 28 27 25 28 29 34 38 40
50 47 43 38 36 35 30 33 36 34 31 32 29 30 30 30 30 28 29 30 31 29 28 28 28 29 32 35 32 37 36 37
50 45 42 39 36 34 29 32 37 36 35 36 32 30 30 30 30 29 29 30 32 31 29 30 32 33 32 29 34 35 33 36
48 43 40 37 32 34 33 29 32 36 35 37 35 32 31 32 31 29 28 29 32 32 30 32 36 33 32 28 30 31 35 35
46 44 40 37 34 33 30 33 31 36 35 38 36 34 33 32 31 30 29 30 32 33 30 32 32 37 31 33 39 33 32 36
49 45 44 44 40 38 31 33 36 38 38 39 37 33 33 32 31 31 28 29 31 32 29 31 31 24 27 37 42 40 35 37
53 47 46 46 46 42 36 31 34 40 41 38 38 35 35 35 32 32 27 29 30 32 27 30 28 26 32 33 42 35 36 35

GFSFLT2_500_spd_111.txt.gz
Wind_Speed
28 29 28 30 29 26 25 22 22 21 20 20 18 16 14 13 12 14 14 14 13 15 18 15 15 10 6 15 15 12 23 27
25 29 27 29 30 26 24 23 22 21 19 19 20 19 16 15 13 14 14 14 14 16 17 14 12 10 12 13 17 18 17 27
28 31 26 27 29 27 24 23 21 20 18 19 19 20 19 16 15 15 15 15 16 17 17 16 14 11 11 12 16 11 17 24
29 28 27 26 29 26 24 23 21 20 19 18 18 19 19 18 17 17 17 16 16 18 18 15 18 16 13 13 17 16 14 23
28 31 30 28 30 29 26 23 21 21 20 18 17 19 19 19 18 18 18 17 18 17 18 17 17 19 18 17 18 20 20 24
28 29 29 29 29 31 30 25 22 21 22 19 16 18 19 20 18 18 19 17 17 19 19 19 18 21 21 18 19 23 24 27
30 28 27 29 30 31 30 29 25 22 22 21 18 17 18 20 19 18 19 20 19 19 21 21 22 22 24 22 19 24 27 29
31 28 28 27 29 31 30 30 27 25 24 21 20 19 17 20 20 20 20 21 20 19 21 24 24 24 24 25 23 24 29 30
34 29 29 26 29 31 32 32 28 26 26 24 21 20 18 19 20 21 21 21 23 22 21 24 25 27 26 25 19 19 27 32
33 33 31 29 27 30 33 33 31 28 27 25 23 22 20 20 22 22 22 22 24 25 23 25 26 26 29 27 23 19 23 29
37 37 35 33 30 32 33 34 32 31 28 27 25 23 21 21 23 24 24 23 24 26 26 27 27 27 29 30 26 25 23 29
38 42 38 36 36 31 32 35 33 33 30 28 29 25 22 23 24 25 26 24 25 26 27 28 26 26 27 25 25 29 24 27
47 43 42 41 37 33 30 33 36 33 32 31 31 26 23 25 25 26 28 27 26 27 27 29 27 26 26 27 29 28 28 27
50 48 45 45 39 37 32 34 35 36 36 31 31 28 26 26 28 27 29 28 27 28 27 28 27 27 28 28 29 29 26 25
53 50 46 45 44 41 35 36 37 36 34 32 33 33 31 29 30 29 30 29 28 28 27 29 29 27 27 28 28 31 31 31
52 51 46 45 44 40 37 36 36 34 36 37 35 35 33 29 30 32 32 30 29 30 28 28 30 28 30 30 34 34 34 30
54 52 49 43 43 38 37 34 33 34 36 38 35 36 34 31 31 35 34 32 31 30 30 29 31 30 29 33 32 34 33 31
51 51 52 46 40 39 37 30 34 35 36 31 36 36 36 33 33 36 35 34 33 31 30 28 31 31 30 34 37 38 34 26
51 50 52 51 44 41 37 34 36 35 34 35 36 36 36 33 35 38 37 35 35 31 31 28 31 32 31 32 39 30 31 27
53 52 49 54 53 46 42 39 37 37 37 40 40 41 39 36 36 38 36 36 35 32 31 27 29 30 30 35 34 27 29 32

GFSFLT2_500_spd_114.txt.gz
Wind_Speed
30 30 29 31 31 32 29 27 22 19 19 18 18 17 19 18 16 15 15 14 14 11 12 12 12 10 10 10 11 11 10 20
34 32 28 30 31 31 28 26 23 20 19 17 17 17 18 18 17 17 17 16 14 14 13 11 10 10 11 13 14 11 15 17
32 34 28 27 26 29 29 24 24 21 19 17 16 16 16 17 17 16 17 17 15 14 13 12 9 11 13 15 14 12 10 13
34 31 31 29 23 28 27 24 23 22 20 17 16 16 15 16 16 15 16 16 16 16 15 12 9 13 13 14 13 16 17 14
32 32 33 31 28 24 27 26 25 23 19 17 17 16 15 15 16 15 16 15 16 16 16 15 11 14 15 14 16 15 17 16
35 29 29 31 28 24 26 28 27 25 22 18 17 17 16 15 16 15 15 15 15 15 16 16 14 14 19 17 18 17 16 23
38 32 28 29 28 26 25 27 27 25 23 20 18 18 18 15 15 15 15 16 16 15 17 17 17 14 18 21 20 19 20 21
42 37 33 28 28 27 25 26 28 26 25 22 20 19 19 17 15 15 15 15 15 15 17 18 19 17 17 20 21 20 21 24
47 41 39 28 29 27 26 26 28 26 24 23 23 21 21 19 16 15 15 17 17 17 18 19 19 21 21 20 23 23 22 23
50 43 40 33 29 29 28 28 28 28 26 24 25 24 22 21 20 17 16 18 19 18 19 20 20 23 23 22 22 24 22 21
54 44 41 38 34 32 31 30 27 29 27 26 26 26 25 23 22 20 19 19 20 20 19 21 21 23 24 24 24 23 25 26
60 47 43 42 39 36 33 31 29 29 29 27 27 27 29 24 25 23 21 20 20 22 22 22 22 23 25 25 23 20 23 25
64 52 50 46 45 36 34 33 33 33 31 29 29 30 30 25 26 26 24 23 21 23 23 24 23 24 25 25 24 23 23 26
66 58 51 48 48 42 40 36 35 37 33 30 30 32 31 28 29 28 27 26 24 24 24 25 24 25 25 26 25 24 20 24
69 65 52 51 48 46 41 39 37 37 36 34 35 34 34 33 31 30 30 29 27 27 27 25 25 25 27 27 26 24 22 24
69 65 52 50 50 46 43 40 39 39 38 38 39 39 37 32 32 33 31 31 31 30 29 27 27 25 27 28 30 27 24 27
70 66 55 51 47 44 42 43 40 42 39 37 39 43 36 35 35 34 32 34 34 31 31 30 28 26 27 29 30 26 26 26
68 65 56 50 46 47 41 41 38 39 40 41 41 41 40 39 35 35 34 33 36 34 32 32 30 28 26 29 30 28 29 30
67 63 58 54 51 50 46 42 40 40 37 38 34 44 39 35 35 37 35 34 36 34 33 34 31 30 27 28 29 28 30 31
67 65 61 54 48 49 46 42 42 43 42 40 37 34 39 42 41 38 38 35 37 34 35 34 33 31 27 28 28 29 28 29

GFSFLT2_500_spd_120.txt.gz
Wind_Speed
32 30 29 28 30 29 27 24 23 19 16 15 14 13 12 13 13 12 10 9 9 10 10 12 12 11 9 8 8 8 7 9
32 31 31 33 32 34 30 26 25 20 15 14 14 14 11 12 12 12 12 9 8 9 8 10 11 11 10 9 8 8 9 10
36 34 35 38 36 37 30 25 24 22 18 14 14 14 13 12 11 12 13 11 8 7 7 9 9 9 9 10 10 9 10 13
40 36 37 38 36 37 31 27 24 23 20 17 13 14 14 13 12 12 12 12 9 5 6 8 9 8 9 10 10 10 12 14
46 42 39 38 38 36 35 30 27 24 22 20 16 14 15 14 14 12 12 12 11 6 6 5 8 8 8 9 11 13 14 16
50 47 43 40 41 37 37 35 29 25 25 22 20 16 15 16 15 15 14 13 13 8 7 6 5 8 9 8 10 14 17 17
54 51 48 44 44 37 36 35 30 26 27 23 23 20 17 17 17 17 15 14 13 11 9 9 6 6 9 9 10 12 15 15
57 54 53 51 48 39 36 35 33 30 27 26 24 23 20 19 18 18 17 15 14 14 11 12 10 8 9 10 11 12 14 17
60 56 56 53 53 44 37 33 35 34 30 29 26 25 23 21 20 19 18 18 17 16 14 13 13 11 10 10 11 13 13 15
64 61 60 60 55 51 39 34 36 37 33 30 28 27 25 23 22 21 20 20 20 19 17 16 15 14 13 11 12 13 13 14
67 66 62 63 60 54 44 40 40 37 34 32 30 29 27 26 24 23 23 23 23 22 20 18 17 16 15 13 13 13 14 14
70 70 66 65 63 57 53 43 42 36 36 35 33 30 28 26 26 26 26 25 26 25 22 20 19 18 17 15 15 13 14 18
74 75 70 69 67 62 59 46 42 36 36 39 37 33 29 27 28 28 27 25 27 27 25 23 21 20 19 18 17 16 16 18
80 77 74 72 68 64 56 51 45 42 41 42 40 34 30 30 30 30 26 27 29 29 28 27 23 23 22 20 19 18 19 19
86 81 77 74 70 66 62 56 52 48 41 40 40 37 34 34 33 33 30 29 31 30 30 29 28 27 25 23 21 21 21 22
90 85 80 76 71 68 64 59 52 46 40 40 43 40 37 36 35 35 35 32 29 30 32 32 32 30 29 27 25 23 24 23
92 85 80 76 73 67 64 62 59 50 47 45 45 45 42 41 39 37 36 32 31 33 35 36 36 33 31 30 28 27 26 25
88 83 77 75 71 69 69 60 60 52 49 48 44 47 46 45 43 40 37 36 33 39 39 36 36 36 32 31 31 31 28 28
75 76 74 71 71 70 67 69 48 48 52 50 46 43 37 40 43 43 41 41 41 45 41 37 36 36 35 32 33 33 32 30
60 69 70 71 71 70 68 60 51 51 48 45 43 38 40 35 39 40 45 48 46 46 43 41 39 38 35 34 34 34 33 32

GFSFLT2_500_spd_123.txt.gz
Wind_Speed
36 34 29 28 28 28 28 26 24 22 20 19 16 12 14 14 10 9 8 9 8 9 9 9 10 11 12 11 12 11 11 10
38 36 32 30 30 30 30 29 27 24 21 19 17 16 13 14 12 10 8 9 8 8 8 8 9 9 11 10 10 11 12 12
41 39 36 35 35 35 34 32 28 26 23 20 18 17 16 14 13 12 10 9 9 9 7 7 9 8 10 9 10 12 12 12
46 44 40 40 39 38 35 34 28 25 23 23 20 18 18 16 14 13 12 10 9 9 8 9 7 7 8 10 10 10 12 13
50 48 43 42 41 41 38 35 30 24 25 25 24 21 19 18 16 15 13 12 11 9 10 10 8 7 6 10 11 12 12 14
54 51 47 45 45 44 41 37 33 29 25 25 27 23 22 19 17 16 15 15 13 12 11 12 11 8 7 8 11 13 13 12
56 54 51 48 48 47 46 40 38 35 26 25 26 25 24 21 19 19 17 16 16 14 13 13 13 13 10 9 10 11 12 13
60 58 54 53 52 50 48 45 42 38 31 28 26 27 24 24 22 21 19 17 18 17 16 14 15 14 14 12 11 11 13 14
61 62 58 56 55 55 53 49 46 42 37 33 27 28 26 26 26 24 22 20 19 19 17 16 17 16 17 16 14 13 13 13
63 63 63 60 57 57 57 53 46 45 41 36 29 28 29 28 28 26 24 22 22 21 19 18 19 17 18 19 18 16 15 13
67 67 65 63 61 59 59 58 48 45 45 39 31 30 32 30 30 29 26 25 24 23 21 18 20 20 18 19 19 20 17 16
78 72 71 67 63 62 64 62 55 47 47 41 35 34 34 32 30 30 29 29 28 26 24 20 21 22 21 19 19 21 20 19
81 82 77 72 68 67 67 64 61 52 45 45 38 37 35 34 31 31 31 31 31 29 27 24 23 21 23 22 20 22 21 22
89 90 81 76 72 69 70 68 63 56 46 46 42 40 37 36 34 34 32 31 31 30 29 27 25 24 24 24 23 23 23 22
84 89 87 82 78 73 74 72 68 61 54 47 47 42 39 39 38 36 33 33 31 32 31 29 27 27 26 26 25 26 24 23
73 91 95 88 83 78 75 73 68 60 56 48 47 44 39 40 41 39 38 36 35 33 32 30 29 30 30 28 28 27 27 27
61 89 98 92 84 77 73 73 70 65 58 52 49 47 45 43 46 43 41 38 38 36 31 32 33 34 32 31 30 30 29 30
54 85 95 95 87 79 74 73 72 71 63 59 56 50 49 45 47 42 45 45 41 39 36 37 38 37 35 33 32 33 32 32
41 77 90 90 88 82 77 75 70 71 68 64 62 54 51 46 47 47 46 49 46 45 42 42 43 40 36 36 36 35 35 34
24 57 79 86 85 80 77 78 73 69 66 50 78 54 50 51 49 46 44 51 46 47 46 46 46 45 40 41 40 38 37 36

GFSFLT2_500_spd_126.txt.gz
Wind_Speed
38 37 35 33 33 32 30 29 25 21 19 18 16 15 16 15 14 12 13 9 8 8 7 7 8 9 10 10 10 9 10 13
40 40 38 35 33 34 33 31 28 24 21 18 16 16 16 16 16 13 13 11 8 8 8 8 7 8 10 10 10 9 11 13
42 42 41 38 35 36 36 33 32 27 24 21 17 16 16 16 17 16 14 12 12 8 8 9 9 9 9 9 9 9 11 12
45 46 44 42 38 37 39 37 36 32 24 23 19 18 17 16 17 18 17 13 12 9 8 9 11 10 9 9 7 9 10 12
48 49 49 44 41 40 40 40 38 35 27 24 22 20 20 18 17 18 19 16 13 12 10 10 12 11 10 9 7 9 11 12
53 52 51 51 45 44 42 44 41 38 34 26 24 23 24 21 19 18 19 18 16 14 13 12 13 13 12 11 10 10 10 11
54 56 54 53 50 49 46 46 46 41 39 33 26 24 25 24 22 19 19 20 19 17 16 15 14 15 14 15 13 11 11 12
56 57 59 56 53 52 50 49 49 44 41 37 32 26 25 25 22 21 21 21 20 20 19 16 16 17 16 17 18 16 13 14
59 59 58 59 56 55 54 53 52 50 42 42 37 30 25 26 25 24 22 23 21 20 21 19 17 18 17 18 19 19 19 16
62 64 62 62 59 60 59 57 56 55 47 45 41 34 28 28 28 26 25 24 24 23 22 22 20 19 18 18 18 19 20 21
71 68 68 66 65 64 62 61 60 58 55 48 45 37 32 31 29 29 27 25 26 27 26 24 22 21 20 19 19 19 20 21
76 72 73 73 72 70 66 65 63 61 58 50 48 41 36 32 30 31 28 27 28 29 29 26 25 24 23 21 21 21 19 21
63 74 77 79 77 75 71 68 66 64 62 54 49 46 39 34 32 33 32 32 31 31 30 28 28 27 24 24 23 24 22 21
43 60 77 84 84 80 77 72 70 66 64 61 53 47 42 38 35 34 36 33 33 32 31 30 29 29 26 25 26 25 27 23
51 50 58 84 89 89 78 77 72 68 69 67 56 51 46 43 37 34 38 37 34 34 32 31 31 31 29 27 27 29 28 25
57 57 63 63 89 94 87 79 76 70 68 67 58 55 50 46 40 37 39 40 38 36 34 33 33 30 31 29 30 31 30 27
54 44 57 69 66 93 92 84 79 69 68 67 62 58 52 49 43 41 41 42 42 39 37 35 34 33 32 33 33 33 32 32
47 61 52 63 68 81 95 89 79 72 66 70 63 59 54 53 48 45 44 45 45 44 40 38 36 36 36 36 36 36 34 33
50 46 39 51 68 68 96 88 81 76 72 75 71 62 55 57 55 51 48 47 48 46 44 42 41 39 40 40 39 37 37 37
33 30 30 37 65 61 92 91 84 76 81 76 82 70 61 65 61 55 51 47 48 47 49 44 45 44 44 44 44 43 39 38

GFSFLT2_500_spd_129.txt.gz
Wind_Speed
36 36 38 36 36 34 35 34 31 28 24 22 21 17 14 13 16 14 13 12 10 9 7 8 8 9 9 11 11 12 10 8
36 36 39 38 37 36 36 35 34 29 27 23 21 19 16 15 15 15 15 14 12 10 9 8 9 10 10 10 11 10 11 10
39 39 40 40 40 38 37 37 36 31 28 27 22 20 18 15 16 15 14 15 15 13 11 9 8 10 11 10 11 10 11 10
41 42 42 44 42 41 38 39 37 35 32 28 24 21 19 17 16 16 16 16 16 16 14 11 10 10 11 9 11 9 12 11
47 45 45 45 47 44 42 41 40 39 35 31 26 24 22 19 18 18 19 17 17 17 16 14 12 13 12 12 11 10 10 11
49 51 50 49 49 50 43 43 42 42 39 35 29 26 25 22 21 21 21 20 18 19 18 15 15 14 14 14 13 12 12 10
50 53 52 50 52 53 52 48 44 44 44 40 34 30 27 25 22 20 24 22 21 20 20 19 17 16 16 16 15 14 14 13
51 53 56 56 55 54 55 54 51 51 49 45 40 34 30 28 24 21 24 24 23 22 21 21 19 18 18 18 17 17 17 16
55 54 58 60 60 58 57 56 54 53 52 50 45 40 33 30 28 23 25 26 24 23 23 22 20 19 20 19 19 19 19 19
63 62 61 63 64 63 60 60 59 57 56 53 50 46 38 32 29 26 27 26 25 25 25 25 23 21 22 22 20 19 19 21
68 67 66 66 66 69 67 62 64 64 60 56 54 51 45 36 31 31 28 28 27 28 28 27 25 23 23 23 23 22 21 20
53 59 62 70 72 72 72 68 66 65 63 60 57 55 51 43 36 33 31 30 29 29 29 29 27 26 25 23 25 24 24 23
51 53 61 60 72 77 75 75 71 71 64 61 59 59 56 49 41 34 33 32 31 30 32 30 28 29 27 26 25 25 26 26
51 45 44 47 45 67 81 79 78 74 71 65 62 63 59 55 45 38 37 35 33 32 32 32 32 31 30 29 26 26 28 27
57 53 49 50 48 47 54 84 81 77 73 69 67 66 64 58 48 43 39 38 36 35 35 34 33 33 34 30 28 28 29 28
50 49 53 53 53 52 50 63 87 81 78 75 71 68 67 61 54 49 42 41 39 40 38 36 35 34 34 31 30 30 28 29
34 38 43 46 48 50 59 59 77 87 83 81 74 67 70 62 57 51 45 44 44 42 42 40 37 36 36 35 33 32 31 30
40 37 39 47 54 58 57 60 60 88 87 83 78 72 69 68 60 56 54 47 47 45 45 44 40 39 39 38 35 35 34 33
39 38 42 52 49 50 54 69 67 82 89 85 80 77 70 73 63 59 55 50 50 49 47 46 43 42 41 41 40 37 36 36
34 34 32 40 50 53 54 55 70 76 92 89 87 82 82 54 65 61 59 58 52 52 51 49 47 45 42 43 43 42 41 40